Observation data for Lomax on 11/17/2019      Previous  Date       Current Mesonet Observations  Soil Data  Daily Summary Page  Observations in Plain Language
KLO1 170600Z 20010KT 09/04 A2999 RMK A01 T00920039  RH  069%=      5-min Rain = 0
KLO1 170601Z 20010KT 09/04 A2999 RMK A01 T00920039  RH  069%=      5-min Rain = 0
KLO1 170602Z 20011KT 09/04 A2999 RMK A01 T00920039  RH  069%=      5-min Rain = 0
KLO1 170603Z 20010KT 09/04 A2999 RMK A01 T00920039  RH  070%=      5-min Rain = 0
KLO1 170604Z 20010KT 09/04 A2999 RMK A01 T00910039  RH  070%=      5-min Rain = 0
KLO1 170605Z 20010KT 09/04 A2999 RMK A01 T00920039  RH  070%=      5-min Rain = 0
KLO1 170606Z 20009KT 09/04 A2998 RMK A01 T00920039  RH  070%=      5-min Rain = 0
KLO1 170607Z 20010KT 09/04 A2998 RMK A01 T00920039  RH  070%=      5-min Rain = 0
KLO1 170608Z 20010KT 09/04 A2998 RMK A01 T00920039  RH  070%=      5-min Rain = 0
KLO1 170609Z 20010KT 09/04 A2998 RMK A01 T00910039  RH  070%=      5-min Rain = 0
KLO1 170610Z 20010KT 09/04 A2998 RMK A01 T00910039  RH  070%=      5-min Rain = 0
KLO1 170611Z 20010KT 09/04 A2998 RMK A01 T00910039  RH  070%=      5-min Rain = 0
KLO1 170612Z 20010KT 09/04 A2998 RMK A01 T00910039  RH  070%=      5-min Rain = 0
KLO1 170613Z 20009KT 09/04 A2998 RMK A01 T00910039  RH  070%=      5-min Rain = 0
KLO1 170614Z 20010KT 09/04 A2998 RMK A01 T00910039  RH  070%=      5-min Rain = 0
KLO1 170615Z 20010KT 09/04 A2998 RMK A01 T00900039  RH  070%=      5-min Rain = 0
KLO1 170616Z 20010KT 09/04 A2998 RMK A01 T00900039  RH  070%=      5-min Rain = 0
KLO1 170617Z 20009KT 09/04 A2998 RMK A01 T00910039  RH  070%=      5-min Rain = 0
KLO1 170618Z 20011KT 09/04 A2998 RMK A01 T00910039  RH  070%=      5-min Rain = 0
KLO1 170619Z 20010KT 09/04 A2998 RMK A01 T00910040  RH  070%=      5-min Rain = 0
KLO1 170620Z 20009KT 09/04 A2998 RMK A01 T00910039  RH  070%=      5-min Rain = 0
KLO1 170621Z 20008KT 09/04 A2998 RMK A01 T00910039  RH  070%=      5-min Rain = 0
KLO1 170622Z 20009KT 09/04 A2998 RMK A01 T00900039  RH  070%=      5-min Rain = 0
KLO1 170623Z 20009KT 09/04 A2998 RMK A01 T00900039  RH  070%=      5-min Rain = 0
KLO1 170624Z 20009KT 09/04 A2998 RMK A01 T00900039  RH  071%=      5-min Rain = 0
KLO1 170625Z 20009KT 09/04 A2998 RMK A01 T00890039  RH  071%=      5-min Rain = 0
KLO1 170626Z 20009KT 09/04 A2998 RMK A01 T00890039  RH  071%=      5-min Rain = 0
KLO1 170627Z 20009KT 09/04 A2998 RMK A01 T00890039  RH  071%=      5-min Rain = 0
KLO1 170628Z 20010KT 09/04 A2998 RMK A01 T00900039  RH  071%=      5-min Rain = 0
KLO1 170629Z 20008KT 09/04 A2998 RMK A01 T00890039  RH  071%=      5-min Rain = 0
KLO1 170630Z 20008KT 09/04 A2998 RMK A01 T00890039  RH  071%=      5-min Rain = 0
KLO1 170631Z 20009KT 09/04 A2998 RMK A01 T00890039  RH  071%=      5-min Rain = 0
KLO1 170632Z 20008KT 09/04 A2998 RMK A01 T00890039  RH  071%=      5-min Rain = 0
KLO1 170633Z 20009KT 09/04 A2998 RMK A01 T00890039  RH  071%=      5-min Rain = 0
KLO1 170634Z 20009KT 09/04 A2998 RMK A01 T00890040  RH  071%=      5-min Rain = 0
KLO1 170635Z 20009KT 09/04 A2998 RMK A01 T00890039  RH  071%=      5-min Rain = 0
KLO1 170636Z 20009KT 09/04 A2998 RMK A01 T00890039  RH  071%=      5-min Rain = 0
KLO1 170637Z 20008KT 09/04 A2998 RMK A01 T00890040  RH  071%=      5-min Rain = 0
KLO1 170638Z 20009KT 09/04 A2998 RMK A01 T00890039  RH  071%=      5-min Rain = 0
KLO1 170639Z 20009KT 09/04 A2998 RMK A01 T00890039  RH  071%=      5-min Rain = 0
KLO1 170640Z 20009KT 09/04 A2998 RMK A01 T00890039  RH  071%=      5-min Rain = 0
KLO1 170641Z 20008KT 09/04 A2998 RMK A01 T00890040  RH  071%=      5-min Rain = 0
KLO1 170642Z 20009KT 09/04 A2998 RMK A01 T00890039  RH  071%=      5-min Rain = 0
KLO1 170643Z 20009KT 09/04 A2999 RMK A01 T00890039  RH  071%=      5-min Rain = 0
KLO1 170644Z 21007KT 09/04 A2999 RMK A01 T00890039  RH  071%=      5-min Rain = 0
KLO1 170645Z 20008KT 09/04 A2999 RMK A01 T00890039  RH  071%=      5-min Rain = 0
KLO1 170646Z 20008KT 09/04 A2999 RMK A01 T00890039  RH  071%=      5-min Rain = 0
KLO1 170647Z 21009KT 09/04 A2999 RMK A01 T00890039  RH  071%=      5-min Rain = 0
KLO1 170648Z 20009KT 09/04 A2999 RMK A01 T00890039  RH  071%=      5-min Rain = 0
KLO1 170649Z 20008KT 09/04 A2999 RMK A01 T00890039  RH  071%=      5-min Rain = 0
KLO1 170650Z 20008KT 09/04 A2999 RMK A01 T00890039  RH  071%=      5-min Rain = 0
KLO1 170651Z 20008KT 09/04 A2999 RMK A01 T00880039  RH  071%=      5-min Rain = 0
KLO1 170652Z 20009KT 09/04 A2999 RMK A01 T00880039  RH  072%=      5-min Rain = 0
KLO1 170653Z 20008KT 09/04 A2999 RMK A01 T00880039  RH  072%=      5-min Rain = 0
KLO1 170654Z 20007KT 09/04 A2999 RMK A01 T00870039  RH  072%=      5-min Rain = 0
KLO1 170655Z 20007KT 09/04 A2999 RMK A01 T00870039  RH  072%=      5-min Rain = 0
KLO1 170656Z 20008KT 09/04 A2999 RMK A01 T00870039  RH  072%=      5-min Rain = 0
KLO1 170657Z 20008KT 09/04 A2999 RMK A01 T00870039  RH  072%=      5-min Rain = 0
KLO1 170658Z 20008KT 09/04 A2999 RMK A01 T00860039  RH  072%=      5-min Rain = 0
KLO1 170659Z 20008KT 09/04 A2999 RMK A01 T00860039  RH  072%=      5-min Rain = 0
KLO1 170700Z 20008KT 09/04 A2999 RMK A01 T00860039  RH  072%=      5-min Rain = 0
KLO1 170701Z 20009KT 09/04 A2999 RMK A01 T00860039  RH  072%=      5-min Rain = 0
KLO1 170702Z 20009KT 09/04 A2999 RMK A01 T00860039  RH  072%=      5-min Rain = 0
KLO1 170703Z 20009KT 09/04 A2999 RMK A01 T00860039  RH  072%=      5-min Rain = 0
KLO1 170704Z 20009KT 09/04 A2999 RMK A01 T00860039  RH  072%=      5-min Rain = 0
KLO1 170705Z 20009KT 09/04 A2999 RMK A01 T00860039  RH  072%=      5-min Rain = 0
KLO1 170706Z 20009KT 09/04 A2999 RMK A01 T00860039  RH  072%=      5-min Rain = 0
KLO1 170707Z 20008KT 09/04 A2999 RMK A01 T00860039  RH  072%=      5-min Rain = 0
KLO1 170708Z 20009KT 09/04 A2999 RMK A01 T00860039  RH  072%=      5-min Rain = 0
KLO1 170709Z 20009KT 09/04 A2999 RMK A01 T00850039  RH  073%=      5-min Rain = 0
KLO1 170710Z 20009KT 09/04 A2999 RMK A01 T00850039  RH  073%=      5-min Rain = 0
KLO1 170711Z 20009KT 09/04 A2998 RMK A01 T00850039  RH  073%=      5-min Rain = 0
KLO1 170712Z 20008KT 09/04 A2998 RMK A01 T00850039  RH  073%=      5-min Rain = 0
KLO1 170713Z 20009KT 09/04 A2998 RMK A01 T00850039  RH  073%=      5-min Rain = 0
KLO1 170714Z 20008KT 08/04 A2998 RMK A01 T00840039  RH  073%=      5-min Rain = 0
KLO1 170715Z 20009KT 08/04 A2998 RMK A01 T00840038  RH  073%=      5-min Rain = 0
KLO1 170716Z 20009KT 08/04 A2998 RMK A01 T00830038  RH  073%=      5-min Rain = 0
KLO1 170717Z 20009KT 08/04 A2999 RMK A01 T00830039  RH  074%=      5-min Rain = 0
KLO1 170718Z 21009KT 08/04 A2999 RMK A01 T00830039  RH  074%=      5-min Rain = 0
KLO1 170719Z 20008KT 08/04 A2999 RMK A01 T00830039  RH  074%=      5-min Rain = 0
KLO1 170720Z 20009KT 08/04 A2999 RMK A01 T00820038  RH  074%=      5-min Rain = 0
KLO1 170721Z 21008KT 08/04 A2999 RMK A01 T00820038  RH  074%=      5-min Rain = 0
KLO1 170722Z 20008KT 08/04 A2999 RMK A01 T00820038  RH  074%=      5-min Rain = 0
KLO1 170723Z 20008KT 08/04 A2999 RMK A01 T00820039  RH  074%=      5-min Rain = 0
KLO1 170724Z 21009KT 08/04 A2998 RMK A01 T00820039  RH  074%=      5-min Rain = 0
KLO1 170725Z 21007KT 08/04 A2998 RMK A01 T00820038  RH  074%=      5-min Rain = 0
KLO1 170726Z 21008KT 08/04 A2998 RMK A01 T00820038  RH  074%=      5-min Rain = 0
KLO1 170727Z 21008KT 08/04 A2999 RMK A01 T00820038  RH  074%=      5-min Rain = 0
KLO1 170728Z 21007KT 08/04 A2999 RMK A01 T00810038  RH  074%=      5-min Rain = 0
KLO1 170729Z 21007KT 08/04 A2999 RMK A01 T00810038  RH  074%=      5-min Rain = 0
KLO1 170730Z 21007KT 08/04 A2999 RMK A01 T00800038  RH  075%=      5-min Rain = 0
KLO1 170731Z 21007KT 08/04 A2999 RMK A01 T00800038  RH  075%=      5-min Rain = 0
KLO1 170732Z 21007KT 08/04 A2999 RMK A01 T00800038  RH  075%=      5-min Rain = 0
KLO1 170733Z 21007KT 08/04 A2999 RMK A01 T00800038  RH  075%=      5-min Rain = 0
KLO1 170734Z 20007KT 08/04 A2999 RMK A01 T00800038  RH  075%=      5-min Rain = 0
KLO1 170735Z 21006KT 08/04 A2999 RMK A01 T00790038  RH  075%=      5-min Rain = 0
KLO1 170736Z 21006KT 08/04 A2999 RMK A01 T00790038  RH  075%=      5-min Rain = 0
KLO1 170737Z 20006KT 08/04 A2999 RMK A01 T00790038  RH  075%=      5-min Rain = 0
KLO1 170738Z 20006KT 08/04 A2999 RMK A01 T00780037  RH  075%=      5-min Rain = 0
KLO1 170739Z 20006KT 08/04 A2999 RMK A01 T00780037  RH  076%=      5-min Rain = 0
KLO1 170740Z 20006KT 08/04 A2999 RMK A01 T00780037  RH  076%=      5-min Rain = 0
KLO1 170741Z 20006KT 08/04 A2999 RMK A01 T00780037  RH  076%=      5-min Rain = 0
KLO1 170742Z 20006KT 08/04 A2999 RMK A01 T00780038  RH  076%=      5-min Rain = 0
KLO1 170743Z 20006KT 08/04 A2999 RMK A01 T00770038  RH  076%=      5-min Rain = 0
KLO1 170744Z 20006KT 08/04 A2999 RMK A01 T00770038  RH  076%=      5-min Rain = 0
KLO1 170745Z 20005KT 08/04 A2999 RMK A01 T00780038  RH  076%=      5-min Rain = 0
KLO1 170746Z 20006KT 08/04 A2999 RMK A01 T00770038  RH  076%=      5-min Rain = 0
KLO1 170747Z 20005KT 08/04 A2999 RMK A01 T00770037  RH  076%=      5-min Rain = 0
KLO1 170748Z 20006KT 08/04 A2999 RMK A01 T00760037  RH  076%=      5-min Rain = 0
KLO1 170749Z 20005KT 08/04 A2999 RMK A01 T00760037  RH  076%=      5-min Rain = 0
KLO1 170750Z 20006KT 08/04 A2999 RMK A01 T00750037  RH  076%=      5-min Rain = 0
KLO1 170751Z 20006KT 08/04 A2999 RMK A01 T00760037  RH  077%=      5-min Rain = 0
KLO1 170752Z 20005KT 08/04 A2999 RMK A01 T00750037  RH  076%=      5-min Rain = 0
KLO1 170753Z 19005KT 08/04 A2999 RMK A01 T00750036  RH  077%=      5-min Rain = 0
KLO1 170754Z 20005KT 07/04 A2999 RMK A01 T00740036  RH  077%=      5-min Rain = 0
KLO1 170755Z 20005KT 07/04 A2999 RMK A01 T00740036  RH  077%=      5-min Rain = 0
KLO1 170756Z 20006KT 07/04 A2999 RMK A01 T00740036  RH  077%=      5-min Rain = 0
KLO1 170757Z 20005KT 07/04 A2999 RMK A01 T00740036  RH  077%=      5-min Rain = 0
KLO1 170758Z 19006KT 07/04 A2999 RMK A01 T00730036  RH  077%=      5-min Rain = 0
KLO1 170759Z 20006KT 07/04 A2999 RMK A01 T00730036  RH  077%=      5-min Rain = 0
KLO1 170800Z 20006KT 07/04 A2999 RMK A01 T00720036  RH  078%=      5-min Rain = 0
KLO1 170801Z 19006KT 07/04 A2998 RMK A01 T00720036  RH  078%=      5-min Rain = 0
KLO1 170802Z 19006KT 07/04 A2998 RMK A01 T00720036  RH  078%=      5-min Rain = 0
KLO1 170803Z 19005KT 07/04 A2998 RMK A01 T00720036  RH  078%=      5-min Rain = 0
KLO1 170804Z 19005KT 07/04 A2998 RMK A01 T00710036  RH  078%=      5-min Rain = 0
KLO1 170805Z 19005KT 07/04 A2998 RMK A01 T00710036  RH  078%=      5-min Rain = 0
KLO1 170806Z 19006KT 07/04 A2998 RMK A01 T00710036  RH  079%=      5-min Rain = 0
KLO1 170807Z 19006KT 07/04 A2998 RMK A01 T00710037  RH  079%=      5-min Rain = 0
KLO1 170808Z 19007KT 07/04 A2998 RMK A01 T00710037  RH  079%=      5-min Rain = 0
KLO1 170809Z 19006KT 07/04 A2998 RMK A01 T00720037  RH  079%=      5-min Rain = 0
KLO1 170810Z 19006KT 07/04 A2998 RMK A01 T00720037  RH  078%=      5-min Rain = 0
KLO1 170811Z 19006KT 07/04 A2998 RMK A01 T00720037  RH  078%=      5-min Rain = 0
KLO1 170812Z 20006KT 07/04 A2998 RMK A01 T00720037  RH  079%=      5-min Rain = 0
KLO1 170813Z 19006KT 07/04 A2998 RMK A01 T00720037  RH  079%=      5-min Rain = 0
KLO1 170814Z 19007KT 07/04 A2998 RMK A01 T00730038  RH  078%=      5-min Rain = 0
KLO1 170815Z 19006KT 07/04 A2998 RMK A01 T00730038  RH  078%=      5-min Rain = 0
KLO1 170816Z 19007KT 07/04 A2998 RMK A01 T00730037  RH  078%=      5-min Rain = 0
KLO1 170817Z 19006KT 07/04 A2998 RMK A01 T00730037  RH  078%=      5-min Rain = 0
KLO1 170818Z 19007KT 07/04 A2998 RMK A01 T00730037  RH  078%=      5-min Rain = 0
KLO1 170819Z 19007KT 07/04 A2998 RMK A01 T00730037  RH  078%=      5-min Rain = 0
KLO1 170820Z 20008KT 07/04 A2998 RMK A01 T00740038  RH  078%=      5-min Rain = 0
KLO1 170821Z 19008KT 07/04 A2998 RMK A01 T00740038  RH  078%=      5-min Rain = 0
KLO1 170822Z 20008KT 08/04 A2998 RMK A01 T00750039  RH  078%=      5-min Rain = 0
KLO1 170823Z 20008KT 08/04 A2998 RMK A01 T00760039  RH  077%=      5-min Rain = 0
KLO1 170824Z 19008KT 08/04 A2998 RMK A01 T00770039  RH  077%=      5-min Rain = 0
KLO1 170825Z 19009KT 08/04 A2997 RMK A01 T00770039  RH  077%=      5-min Rain = 0
KLO1 170826Z 19009KT 08/04 A2997 RMK A01 T00780039  RH  077%=      5-min Rain = 0
KLO1 170827Z 19009KT 08/04 A2997 RMK A01 T00790039  RH  076%=      5-min Rain = 0
KLO1 170828Z 19009KT 08/04 A2997 RMK A01 T00790039  RH  076%=      5-min Rain = 0
KLO1 170829Z 19009KT 08/04 A2997 RMK A01 T00790039  RH  076%=      5-min Rain = 0
KLO1 170830Z 19009KT 08/04 A2997 RMK A01 T00790039  RH  076%=      5-min Rain = 0
KLO1 170831Z 19009KT 08/04 A2997 RMK A01 T00780038  RH  076%=      5-min Rain = 0
KLO1 170832Z 19009KT 08/04 A2997 RMK A01 T00780038  RH  076%=      5-min Rain = 0
KLO1 170833Z 19009KT 08/04 A2997 RMK A01 T00780038  RH  076%=      5-min Rain = 0
KLO1 170834Z 19009KT 08/04 A2997 RMK A01 T00780038  RH  076%=      5-min Rain = 0
KLO1 170835Z 19009KT 08/04 A2997 RMK A01 T00780038  RH  076%=      5-min Rain = 0
KLO1 170836Z 19009KT 08/04 A2997 RMK A01 T00780038  RH  076%=      5-min Rain = 0
KLO1 170837Z 19009KT 08/04 A2997 RMK A01 T00780038  RH  076%=      5-min Rain = 0
KLO1 170838Z 20008KT 08/04 A2997 RMK A01 T00780038  RH  076%=      5-min Rain = 0
KLO1 170839Z 19007KT 08/04 A2997 RMK A01 T00780038  RH  076%=      5-min Rain = 0
KLO1 170840Z 19008KT 08/04 A2997 RMK A01 T00780038  RH  076%=      5-min Rain = 0
KLO1 170841Z 19008KT 08/04 A2997 RMK A01 T00780038  RH  076%=      5-min Rain = 0
KLO1 170842Z 19008KT 08/04 A2997 RMK A01 T00780038  RH  076%=      5-min Rain = 0
KLO1 170843Z 19007KT 08/04 A2997 RMK A01 T00780038  RH  076%=      5-min Rain = 0
KLO1 170844Z 20008KT 08/04 A2997 RMK A01 T00780038  RH  076%=      5-min Rain = 0
KLO1 170845Z 20007KT 08/04 A2997 RMK A01 T00780038  RH  076%=      5-min Rain = 0
KLO1 170846Z 19007KT 08/04 A2997 RMK A01 T00780038  RH  076%=      5-min Rain = 0
KLO1 170847Z 19007KT 08/04 A2997 RMK A01 T00770038  RH  076%=      5-min Rain = 0
KLO1 170848Z 19009KT 08/04 A2997 RMK A01 T00770037  RH  076%=      5-min Rain = 0
KLO1 170849Z 19008KT 08/04 A2997 RMK A01 T00770038  RH  076%=      5-min Rain = 0
KLO1 170850Z 19008KT 08/04 A2997 RMK A01 T00770038  RH  076%=      5-min Rain = 0
KLO1 170851Z 19008KT 08/04 A2997 RMK A01 T00770037  RH  076%=      5-min Rain = 0
KLO1 170852Z 19008KT 08/04 A2997 RMK A01 T00760037  RH  076%=      5-min Rain = 0
KLO1 170853Z 19006KT 08/04 A2997 RMK A01 T00760037  RH  077%=      5-min Rain = 0
KLO1 170854Z 19007KT 08/04 A2997 RMK A01 T00760037  RH  077%=      5-min Rain = 0
KLO1 170855Z 20006KT 08/04 A2997 RMK A01 T00750037  RH  077%=      5-min Rain = 0
KLO1 170856Z 20007KT 08/04 A2997 RMK A01 T00760037  RH  077%=      5-min Rain = 0
KLO1 170857Z 20006KT 08/04 A2997 RMK A01 T00750037  RH  077%=      5-min Rain = 0
KLO1 170858Z 20007KT 08/04 A2997 RMK A01 T00750037  RH  077%=      5-min Rain = 0
KLO1 170859Z 19007KT 08/04 A2997 RMK A01 T00750037  RH  077%=      5-min Rain = 0
KLO1 170900Z 19006KT 08/04 A2997 RMK A01 T00750037  RH  077%=      5-min Rain = 0
KLO1 170901Z 20006KT 08/04 A2997 RMK A01 T00750037  RH  077%=      5-min Rain = 0
KLO1 170902Z 20007KT 07/04 A2997 RMK A01 T00740037  RH  077%=      5-min Rain = 0
KLO1 170903Z 20006KT 07/04 A2997 RMK A01 T00740036  RH  077%=      5-min Rain = 0
KLO1 170904Z 20006KT 07/04 A2997 RMK A01 T00730036  RH  077%=      5-min Rain = 0
KLO1 170905Z 20006KT 07/04 A2997 RMK A01 T00730036  RH  078%=      5-min Rain = 0
KLO1 170906Z 19006KT 07/04 A2997 RMK A01 T00730037  RH  078%=      5-min Rain = 0
KLO1 170907Z 19006KT 07/04 A2997 RMK A01 T00730037  RH  078%=      5-min Rain = 0
KLO1 170908Z 19006KT 07/04 A2997 RMK A01 T00730037  RH  078%=      5-min Rain = 0
KLO1 170909Z 19005KT 07/04 A2997 RMK A01 T00730037  RH  078%=      5-min Rain = 0
KLO1 170910Z 19005KT 07/04 A2997 RMK A01 T00720036  RH  078%=      5-min Rain = 0
KLO1 170911Z 19006KT 07/04 A2997 RMK A01 T00720036  RH  078%=      5-min Rain = 0
KLO1 170912Z 19005KT 07/04 A2997 RMK A01 T00720036  RH  078%=      5-min Rain = 0
KLO1 170913Z 19006KT 07/04 A2997 RMK A01 T00710036  RH  078%=      5-min Rain = 0
KLO1 170914Z 19006KT 07/04 A2997 RMK A01 T00710036  RH  078%=      5-min Rain = 0
KLO1 170915Z 19006KT 07/04 A2997 RMK A01 T00700036  RH  079%=      5-min Rain = 0
KLO1 170916Z 20005KT 07/04 A2997 RMK A01 T00710036  RH  079%=      5-min Rain = 0
KLO1 170917Z 20005KT 07/04 A2998 RMK A01 T00700036  RH  079%=      5-min Rain = 0
KLO1 170918Z 20005KT 07/04 A2998 RMK A01 T00700037  RH  079%=      5-min Rain = 0
KLO1 170919Z 20005KT 07/04 A2998 RMK A01 T00700036  RH  079%=      5-min Rain = 0
KLO1 170920Z 20004KT 07/04 A2998 RMK A01 T00700036  RH  079%=      5-min Rain = 0
KLO1 170921Z 21005KT 07/04 A2998 RMK A01 T00700036  RH  079%=      5-min Rain = 0
KLO1 170922Z 20004KT 07/04 A2998 RMK A01 T00700036  RH  079%=      5-min Rain = 0
KLO1 170923Z 21004KT 07/04 A2998 RMK A01 T00690036  RH  079%=      5-min Rain = 0
KLO1 170924Z 21004KT 07/04 A2998 RMK A01 T00690036  RH  079%=      5-min Rain = 0
KLO1 170925Z 20005KT 07/04 A2998 RMK A01 T00690036  RH  080%=      5-min Rain = 0
KLO1 170926Z 20005KT 07/04 A2998 RMK A01 T00690036  RH  080%=      5-min Rain = 0
KLO1 170927Z 20005KT 07/04 A2998 RMK A01 T00690036  RH  080%=      5-min Rain = 0
KLO1 170928Z 20005KT 07/04 A2998 RMK A01 T00680036  RH  080%=      5-min Rain = 0
KLO1 170929Z 20005KT 07/04 A2998 RMK A01 T00680036  RH  080%=      5-min Rain = 0
KLO1 170930Z 20005KT 07/04 A2997 RMK A01 T00680035  RH  080%=      5-min Rain = 0
KLO1 170931Z 20005KT 07/04 A2997 RMK A01 T00670035  RH  080%=      5-min Rain = 0
KLO1 170932Z 20005KT 07/04 A2997 RMK A01 T00670035  RH  080%=      5-min Rain = 0
KLO1 170933Z 20006KT 07/04 A2997 RMK A01 T00670035  RH  080%=      5-min Rain = 0
KLO1 170934Z 20005KT 07/04 A2997 RMK A01 T00670035  RH  080%=      5-min Rain = 0
KLO1 170935Z 20005KT 07/04 A2997 RMK A01 T00660035  RH  080%=      5-min Rain = 0
KLO1 170936Z 20005KT 07/04 A2997 RMK A01 T00660035  RH  080%=      5-min Rain = 0
KLO1 170937Z 20005KT 07/04 A2997 RMK A01 T00660035  RH  081%=      5-min Rain = 0
KLO1 170938Z 20005KT 07/04 A2997 RMK A01 T00660035  RH  081%=      5-min Rain = 0
KLO1 170939Z 20005KT 07/04 A2997 RMK A01 T00650035  RH  081%=      5-min Rain = 0
KLO1 170940Z 20004KT 07/04 A2997 RMK A01 T00650035  RH  081%=      5-min Rain = 0
KLO1 170941Z 19004KT 07/04 A2997 RMK A01 T00650035  RH  081%=      5-min Rain = 0
KLO1 170942Z 20004KT 07/04 A2997 RMK A01 T00650035  RH  081%=      5-min Rain = 0
KLO1 170943Z 20004KT 07/04 A2997 RMK A01 T00650035  RH  081%=      5-min Rain = 0
KLO1 170944Z 20005KT 07/03 A2997 RMK A01 T00650034  RH  081%=      5-min Rain = 0
KLO1 170945Z 19005KT 07/04 A2997 RMK A01 T00650035  RH  081%=      5-min Rain = 0
KLO1 170946Z 19005KT 06/03 A2997 RMK A01 T00640034  RH  081%=      5-min Rain = 0
KLO1 170947Z 19006KT 06/03 A2997 RMK A01 T00640034  RH  081%=      5-min Rain = 0
KLO1 170948Z 19006KT 06/03 A2997 RMK A01 T00640034  RH  081%=      5-min Rain = 0
KLO1 170949Z 20005KT 06/03 A2997 RMK A01 T00630033  RH  082%=      5-min Rain = 0
KLO1 170950Z 20005KT 06/03 A2998 RMK A01 T00630034  RH  082%=      5-min Rain = 0
KLO1 170951Z 20005KT 06/03 A2998 RMK A01 T00620034  RH  082%=      5-min Rain = 0
KLO1 170952Z 20005KT 06/04 A2998 RMK A01 T00630035  RH  082%=      5-min Rain = 0
KLO1 170953Z 20004KT 06/04 A2998 RMK A01 T00630035  RH  082%=      5-min Rain = 0
KLO1 170954Z 21004KT 06/04 A2998 RMK A01 T00630035  RH  082%=      5-min Rain = 0
KLO1 170955Z 21005KT 06/03 A2998 RMK A01 T00630034  RH  082%=      5-min Rain = 0
KLO1 170956Z 21004KT 06/03 A2998 RMK A01 T00630034  RH  082%=      5-min Rain = 0
KLO1 170957Z 21004KT 06/03 A2998 RMK A01 T00630034  RH  082%=      5-min Rain = 0
KLO1 170958Z 21004KT 06/03 A2998 RMK A01 T00630034  RH  082%=      5-min Rain = 0
KLO1 170959Z 22005KT 06/03 A2998 RMK A01 T00630034  RH  082%=      5-min Rain = 0
KLO1 171000Z 21005KT 06/03 A2998 RMK A01 T00630034  RH  082%=      5-min Rain = 0
KLO1 171001Z 22005KT 06/03 A2998 RMK A01 T00630034  RH  082%=      5-min Rain = 0
KLO1 171002Z 21005KT 06/03 A2998 RMK A01 T00630034  RH  082%=      5-min Rain = 0
KLO1 171003Z 21004KT 06/03 A2998 RMK A01 T00630034  RH  082%=      5-min Rain = 0
KLO1 171004Z 21004KT 06/03 A2997 RMK A01 T00620033  RH  082%=      5-min Rain = 0
KLO1 171005Z 21004KT 06/03 A2997 RMK A01 T00610033  RH  082%=      5-min Rain = 0
KLO1 171006Z 21003KT 06/03 A2997 RMK A01 T00610033  RH  082%=      5-min Rain = 0
KLO1 171007Z 21003KT 06/03 A2997 RMK A01 T00600033  RH  082%=      5-min Rain = 0
KLO1 171008Z 21003KT 06/03 A2997 RMK A01 T00600032  RH  082%=      5-min Rain = 0
KLO1 171009Z 21002KT 06/03 A2998 RMK A01 T00590032  RH  083%=      5-min Rain = 0
KLO1 171010Z 21002KT 06/03 A2998 RMK A01 T00590032  RH  083%=      5-min Rain = 0
KLO1 171011Z 21002KT 06/03 A2998 RMK A01 T00590032  RH  083%=      5-min Rain = 0
KLO1 171012Z 21002KT 06/03 A2998 RMK A01 T00580032  RH  083%=      5-min Rain = 0
KLO1 171013Z 20003KT 06/03 A2998 RMK A01 T00580032  RH  083%=      5-min Rain = 0
KLO1 171014Z 20003KT 06/03 A2998 RMK A01 T00580032  RH  083%=      5-min Rain = 0
KLO1 171015Z 20003KT 06/03 A2998 RMK A01 T00580032  RH  083%=      5-min Rain = 0
KLO1 171016Z 21003KT 06/03 A2998 RMK A01 T00580032  RH  083%=      5-min Rain = 0
KLO1 171017Z 22003KT 06/03 A2998 RMK A01 T00570031  RH  083%=      5-min Rain = 0
KLO1 171018Z 22002KT 06/03 A2998 RMK A01 T00570031  RH  084%=      5-min Rain = 0
KLO1 171019Z 21003KT 06/03 A2998 RMK A01 T00570031  RH  084%=      5-min Rain = 0
KLO1 171020Z 21003KT 06/03 A2998 RMK A01 T00560031  RH  084%=      5-min Rain = 0
KLO1 171021Z 21003KT 06/03 A2998 RMK A01 T00570032  RH  084%=      5-min Rain = 0
KLO1 171022Z 22003KT 06/03 A2998 RMK A01 T00560032  RH  084%=      5-min Rain = 0
KLO1 171023Z 21003KT 06/03 A2998 RMK A01 T00560031  RH  084%=      5-min Rain = 0
KLO1 171024Z 22002KT 06/03 A2998 RMK A01 T00560030  RH  084%=      5-min Rain = 0
KLO1 171025Z 22002KT 06/03 A2998 RMK A01 T00550030  RH  084%=      5-min Rain = 0
KLO1 171026Z 22002KT 05/03 A2998 RMK A01 T00540029  RH  084%=      5-min Rain = 0
KLO1 171027Z 21002KT 05/03 A2998 RMK A01 T00540028  RH  084%=      5-min Rain = 0
KLO1 171028Z 21002KT 05/03 A2998 RMK A01 T00530028  RH  084%=      5-min Rain = 0
KLO1 171029Z 21002KT 05/03 A2998 RMK A01 T00520027  RH  084%=      5-min Rain = 0
KLO1 171030Z 21002KT 05/03 A2998 RMK A01 T00510026  RH  084%=      5-min Rain = 0
KLO1 171031Z 21002KT 05/03 A2998 RMK A01 T00510026  RH  084%=      5-min Rain = 0
KLO1 171032Z 21002KT 05/03 A2998 RMK A01 T00500026  RH  084%=      5-min Rain = 0
KLO1 171033Z 21003KT 05/03 A2998 RMK A01 T00500026  RH  085%=      5-min Rain = 0
KLO1 171034Z 20003KT 05/03 A2998 RMK A01 T00490026  RH  085%=      5-min Rain = 0
KLO1 171035Z 20004KT 05/03 A2998 RMK A01 T00490027  RH  086%=      5-min Rain = 0
KLO1 171036Z 19004KT 05/03 A2998 RMK A01 T00490027  RH  086%=      5-min Rain = 0
KLO1 171037Z 19004KT 05/03 A2998 RMK A01 T00490028  RH  086%=      5-min Rain = 0
KLO1 171038Z 19005KT 05/03 A2998 RMK A01 T00490027  RH  086%=      5-min Rain = 0
KLO1 171039Z 19006KT 05/03 A2998 RMK A01 T00480027  RH  086%=      5-min Rain = 0
KLO1 171040Z 19006KT 05/03 A2998 RMK A01 T00480027  RH  086%=      5-min Rain = 0
KLO1 171041Z 19006KT 05/03 A2998 RMK A01 T00480027  RH  086%=      5-min Rain = 0
KLO1 171042Z 19006KT 05/03 A2998 RMK A01 T00480028  RH  087%=      5-min Rain = 0
KLO1 171043Z 19007KT 05/03 A2998 RMK A01 T00480028  RH  087%=      5-min Rain = 0
KLO1 171044Z 20006KT 05/03 A2998 RMK A01 T00480028  RH  087%=      5-min Rain = 0
KLO1 171045Z 20005KT 05/03 A2998 RMK A01 T00480028  RH  087%=      5-min Rain = 0
KLO1 171046Z 20005KT 05/03 A2998 RMK A01 T00480028  RH  087%=      5-min Rain = 0
KLO1 171047Z 21005KT 05/03 A2998 RMK A01 T00480029  RH  087%=      5-min Rain = 0
KLO1 171048Z 21004KT 05/03 A2998 RMK A01 T00490029  RH  087%=      5-min Rain = 0
KLO1 171049Z 22004KT 05/03 A2998 RMK A01 T00490029  RH  087%=      5-min Rain = 0
KLO1 171050Z 22004KT 05/03 A2998 RMK A01 T00480028  RH  087%=      5-min Rain = 0
KLO1 171051Z 22004KT 05/03 A2998 RMK A01 T00480028  RH  087%=      5-min Rain = 0
KLO1 171052Z 25003KT 05/03 A2999 RMK A01 T00470027  RH  087%=      5-min Rain = 0
KLO1 171053Z 22003KT 05/03 A2999 RMK A01 T00470026  RH  087%=      5-min Rain = 0
KLO1 171054Z 19004KT 05/03 A2998 RMK A01 T00460027  RH  087%=      5-min Rain = 0
KLO1 171055Z 22004KT 05/03 A2998 RMK A01 T00470027  RH  087%=      5-min Rain = 0
KLO1 171056Z 25004KT 05/03 A2999 RMK A01 T00470027  RH  087%=      5-min Rain = 0
KLO1 171057Z 25004KT 05/03 A2999 RMK A01 T00470028  RH  088%=      5-min Rain = 0
KLO1 171058Z 27003KT 05/03 A2999 RMK A01 T00470028  RH  087%=      5-min Rain = 0
KLO1 171059Z 26003KT 05/03 A2999 RMK A01 T00470028  RH  087%=      5-min Rain = 0
KLO1 171100Z 26004KT 05/03 A2999 RMK A01 T00470028  RH  087%=      5-min Rain = 0
KLO1 171101Z 24004KT 05/03 A2999 RMK A01 T00470028  RH  087%=      5-min Rain = 0
KLO1 171102Z 25005KT 05/03 A2999 RMK A01 T00470027  RH  087%=      5-min Rain = 0
KLO1 171103Z 27005KT 05/03 A2999 RMK A01 T00460027  RH  087%=      5-min Rain = 0
KLO1 171104Z 24004KT 05/03 A2999 RMK A01 T00460027  RH  087%=      5-min Rain = 0
KLO1 171105Z 23005KT 05/03 A2999 RMK A01 T00460027  RH  088%=      5-min Rain = 0
KLO1 171106Z 24004KT 05/03 A2999 RMK A01 T00470029  RH  088%=      5-min Rain = 0
KLO1 171107Z 27004KT 05/03 A2999 RMK A01 T00480030  RH  088%=      5-min Rain = 0
KLO1 171108Z 30004KT 05/03 A2999 RMK A01 T00480029  RH  087%=      5-min Rain = 0
KLO1 171109Z 29003KT 05/03 A2999 RMK A01 T00460026  RH  087%=      5-min Rain = 0
KLO1 171110Z 27003KT 05/03 A2999 RMK A01 T00450025  RH  087%=      5-min Rain = 0
KLO1 171111Z 26004KT 05/03 A2999 RMK A01 T00450027  RH  088%=      5-min Rain = 0
KLO1 171112Z 26005KT 05/03 A2999 RMK A01 T00460028  RH  088%=      5-min Rain = 0
KLO1 171113Z 25005KT 05/03 A2999 RMK A01 T00470028  RH  088%=      5-min Rain = 0
KLO1 171114Z 27004KT 05/03 A2999 RMK A01 T00470028  RH  088%=      5-min Rain = 0
KLO1 171115Z 27005KT 05/03 A2999 RMK A01 T00460027  RH  087%=      5-min Rain = 0
KLO1 171116Z 26005KT 05/03 A2999 RMK A01 T00450026  RH  087%=      5-min Rain = 0
KLO1 171117Z 26005KT 05/03 A30 RMK A01 T00450026  RH  088%=      5-min Rain = 0
KLO1 171118Z 25005KT 05/03 A2999 RMK A01 T00450027  RH  088%=      5-min Rain = 0
KLO1 171119Z 25005KT 05/03 A2999 RMK A01 T00450027  RH  088%=      5-min Rain = 0
KLO1 171120Z 25005KT 05/03 A2999 RMK A01 T00460028  RH  088%=      5-min Rain = 0
KLO1 171121Z 25005KT 05/03 A2999 RMK A01 T00460028  RH  088%=      5-min Rain = 0
KLO1 171122Z 24004KT 05/03 A2999 RMK A01 T00460027  RH  088%=      5-min Rain = 0
KLO1 171123Z 25004KT 05/03 A2999 RMK A01 T00460027  RH  088%=      5-min Rain = 0
KLO1 171124Z 24005KT 05/03 A2999 RMK A01 T00460027  RH  088%=      5-min Rain = 0
KLO1 171125Z 23005KT 05/03 A2999 RMK A01 T00450027  RH  088%=      5-min Rain = 0
KLO1 171126Z 23005KT 05/03 A2999 RMK A01 T00450027  RH  088%=      5-min Rain = 0
KLO1 171127Z 23004KT 05/03 A2999 RMK A01 T00450028  RH  088%=      5-min Rain = 0
KLO1 171128Z 24004KT 05/03 A30 RMK A01 T00460028  RH  088%=      5-min Rain = 0
KLO1 171129Z 24004KT 05/03 A30 RMK A01 T00460028  RH  088%=      5-min Rain = 0
KLO1 171130Z 25003KT 05/03 A30 RMK A01 T00450027  RH  088%=      5-min Rain = 0
KLO1 171131Z 25003KT 04/03 A30 RMK A01 T00440026  RH  088%=      5-min Rain = 0
KLO1 171132Z 26003KT 04/03 A30 RMK A01 T00440026  RH  088%=      5-min Rain = 0
KLO1 171133Z 26003KT 04/03 A30 RMK A01 T00440026  RH  088%=      5-min Rain = 0
KLO1 171134Z 26003KT 04/03 A30 RMK A01 T00440027  RH  088%=      5-min Rain = 0
KLO1 171135Z 25004KT 04/03 A30 RMK A01 T00440027  RH  089%=      5-min Rain = 0
KLO1 171136Z 24004KT 05/03 A30 RMK A01 T00450028  RH  089%=      5-min Rain = 0
KLO1 171137Z 24004KT 05/03 A30 RMK A01 T00450028  RH  089%=      5-min Rain = 0
KLO1 171138Z 24004KT 05/03 A30 RMK A01 T00450028  RH  089%=      5-min Rain = 0
KLO1 171139Z 23004KT 05/03 A30 RMK A01 T00460028  RH  089%=      5-min Rain = 0
KLO1 171140Z 24005KT 05/03 A30 RMK A01 T00460028  RH  088%=      5-min Rain = 0
KLO1 171141Z 23005KT 05/03 A30 RMK A01 T00450027  RH  088%=      5-min Rain = 0
KLO1 171142Z 24005KT 04/03 A30 RMK A01 T00440027  RH  088%=      5-min Rain = 0
KLO1 171143Z 25005KT 05/03 A30 RMK A01 T00450027  RH  089%=      5-min Rain = 0
KLO1 171144Z 25004KT 05/03 A3001 RMK A01 T00450027  RH  088%=      5-min Rain = 0
KLO1 171145Z 24004KT 04/03 A3001 RMK A01 T00440026  RH  088%=      5-min Rain = 0
KLO1 171146Z 26004KT 04/03 A3001 RMK A01 T00440026  RH  088%=      5-min Rain = 0
KLO1 171147Z 27003KT 04/03 A3001 RMK A01 T00430026  RH  089%=      5-min Rain = 0
KLO1 171148Z 27003KT 04/03 A3001 RMK A01 T00430026  RH  089%=      5-min Rain = 0
KLO1 171149Z 27003KT 04/03 A3001 RMK A01 T00440027  RH  089%=      5-min Rain = 0
KLO1 171150Z 25004KT 04/03 A3001 RMK A01 T00440027  RH  089%=      5-min Rain = 0
KLO1 171151Z 25004KT 04/03 A3001 RMK A01 T00440028  RH  089%=      5-min Rain = 0
KLO1 171152Z 25004KT 05/03 A3001 RMK A01 T00450029  RH  089%=      5-min Rain = 0
KLO1 171153Z 26003KT 05/03 A3001 RMK A01 T00460029  RH  089%=      5-min Rain = 0
KLO1 171154Z 26003KT 05/03 A3001 RMK A01 T00450027  RH  088%=      5-min Rain = 0
KLO1 171155Z 25004KT 04/03 A3001 RMK A01 T00440027  RH  088%=      5-min Rain = 0
KLO1 171156Z 25004KT 04/03 A3001 RMK A01 T00440026  RH  088%=      5-min Rain = 0
KLO1 171157Z 25004KT 04/03 A3001 RMK A01 T00430025  RH  088%=      5-min Rain = 0
KLO1 171158Z 26004KT 04/03 A3001 RMK A01 T00430025  RH  089%=      5-min Rain = 0
KLO1 171159Z 26004KT 04/03 A3001 RMK A01 T00430026  RH  089%=      5-min Rain = 0
KLO1 171200Z 26004KT 04/03 A3001 RMK A01 T00420025  RH  089%=      5-min Rain = 0
KLO1 171201Z 26004KT 04/03 A3001 RMK A01 T00420026  RH  089%=      5-min Rain = 0
KLO1 171202Z 25005KT 04/03 A3001 RMK A01 T00420026  RH  089%=      5-min Rain = 0
KLO1 171203Z 25005KT 04/03 A3001 RMK A01 T00420026  RH  089%=      5-min Rain = 0
KLO1 171204Z 25005KT 04/03 A3001 RMK A01 T00420026  RH  089%=      5-min Rain = 0
KLO1 171205Z 25005KT 04/03 A3001 RMK A01 T00420026  RH  089%=      5-min Rain = 0
KLO1 171206Z 24005KT 04/03 A3001 RMK A01 T00410025  RH  089%=      5-min Rain = 0
KLO1 171207Z 24005KT 04/03 A3001 RMK A01 T00410025  RH  089%=      5-min Rain = 0
KLO1 171208Z 25004KT 04/03 A3001 RMK A01 T00410025  RH  089%=      5-min Rain = 0
KLO1 171209Z 25003KT 04/03 A3001 RMK A01 T00410025  RH  089%=      5-min Rain = 0
KLO1 171210Z 24004KT 04/03 A3001 RMK A01 T00410025  RH  089%=      5-min Rain = 0
KLO1 171211Z 24004KT 04/02 A3002 RMK A01 T00400024  RH  089%=      5-min Rain = 0
KLO1 171212Z 24004KT 04/02 A3002 RMK A01 T00400023  RH  089%=      5-min Rain = 0
KLO1 171213Z 24004KT 04/02 A3002 RMK A01 T00390023  RH  089%=      5-min Rain = 0
KLO1 171214Z 25005KT 04/02 A3002 RMK A01 T00390024  RH  090%=      5-min Rain = 0
KLO1 171215Z 25005KT 04/02 A3002 RMK A01 T00390023  RH  090%=      5-min Rain = 0
KLO1 171216Z 26004KT 04/02 A3002 RMK A01 T00380022  RH  090%=      5-min Rain = 0
KLO1 171217Z 26005KT 04/02 A3002 RMK A01 T00370021  RH  090%=      5-min Rain = 0
KLO1 171218Z 27005KT 04/02 A3002 RMK A01 T00360021  RH  090%=      5-min Rain = 0
KLO1 171219Z 27005KT 04/02 A3002 RMK A01 T00360022  RH  090%=      5-min Rain = 0
KLO1 171220Z 27006KT 04/02 A3002 RMK A01 T00370023  RH  091%=      5-min Rain = 0
KLO1 171221Z 28006KT 04/03 A3002 RMK A01 T00390025  RH  091%=      5-min Rain = 0
KLO1 171222Z 28006KT 04/03 A3002 RMK A01 T00390025  RH  091%=      5-min Rain = 0
KLO1 171223Z 29007KT 04/03 A3002 RMK A01 T00400025  RH  090%=      5-min Rain = 0
KLO1 171224Z 29007KT 04/02 A3002 RMK A01 T00390024  RH  090%=      5-min Rain = 0
KLO1 171225Z 30007KT 04/03 A3002 RMK A01 T00390025  RH  090%=      5-min Rain = 0
KLO1 171226Z 30006KT 04/03 A3002 RMK A01 T00410026  RH  090%=      5-min Rain = 0
KLO1 171227Z 30005KT 04/03 A3002 RMK A01 T00410026  RH  090%=      5-min Rain = 0
KLO1 171228Z 31006KT 04/03 A3002 RMK A01 T00410027  RH  090%=      5-min Rain = 0
KLO1 171229Z 31005KT 04/03 A3001 RMK A01 T00420027  RH  090%=      5-min Rain = 0
KLO1 171230Z 31005KT 04/03 A3001 RMK A01 T00420026  RH  089%=      5-min Rain = 0
KLO1 171231Z 31005KT 04/03 A3001 RMK A01 T00410025  RH  089%=      5-min Rain = 0
KLO1 171232Z 31005KT 04/02 A3001 RMK A01 T00410024  RH  089%=      5-min Rain = 0
KLO1 171233Z 31005KT 04/02 A3001 RMK A01 T00400023  RH  089%=      5-min Rain = 0
KLO1 171234Z 31005KT 04/02 A3001 RMK A01 T00400024  RH  089%=      5-min Rain = 0
KLO1 171235Z 32004KT 04/02 A3001 RMK A01 T00400024  RH  089%=      5-min Rain = 0
KLO1 171236Z 32004KT 04/02 A3001 RMK A01 T00400024  RH  089%=      5-min Rain = 0
KLO1 171237Z 32004KT 04/02 A3001 RMK A01 T00400023  RH  089%=      5-min Rain = 0
KLO1 171238Z 32005KT 04/02 A3002 RMK A01 T00390023  RH  089%=      5-min Rain = 0
KLO1 171239Z 32007KT 04/02 A3002 RMK A01 T00390023  RH  089%=      5-min Rain = 0
KLO1 171240Z 32007KT 04/02 A3002 RMK A01 T00390022  RH  089%=      5-min Rain = 0
KLO1 171241Z 33006KT 04/02 A3003 RMK A01 T00380021  RH  089%=      5-min Rain = 0
KLO1 171242Z 33005KT 04/02 A3003 RMK A01 T00370021  RH  089%=      5-min Rain = 0
KLO1 171243Z 33005KT 04/02 A3003 RMK A01 T00370021  RH  089%=      5-min Rain = 0
KLO1 171244Z 33005KT 04/02 A3003 RMK A01 T00360021  RH  089%=      5-min Rain = 0
KLO1 171245Z 33005KT 04/02 A3003 RMK A01 T00360021  RH  090%=      5-min Rain = 0
KLO1 171246Z 34005KT 04/02 A3003 RMK A01 T00360021  RH  090%=      5-min Rain = 0
KLO1 171247Z 33006KT 04/02 A3003 RMK A01 T00370022  RH  090%=      5-min Rain = 0
KLO1 171248Z 33007KT 04/03 A3004 RMK A01 T00390025  RH  091%=      5-min Rain = 0
KLO1 171249Z 33007KT 04/03 A3004 RMK A01 T00410027  RH  091%=      5-min Rain = 0
KLO1 171250Z 34007KT 04/03 A3004 RMK A01 T00420029  RH  091%=      5-min Rain = 0
KLO1 171251Z 34007KT 04/03 A3004 RMK A01 T00420028  RH  091%=      5-min Rain = 0
KLO1 171252Z 34007KT 04/03 A3004 RMK A01 T00430029  RH  090%=      5-min Rain = 0
KLO1 171253Z 34007KT 04/03 A3004 RMK A01 T00430028  RH  090%=      5-min Rain = 0
KLO1 171254Z 35006KT 04/03 A3004 RMK A01 T00430028  RH  090%=      5-min Rain = 0
KLO1 171255Z 36004KT 04/03 A3003 RMK A01 T00430027  RH  090%=      5-min Rain = 0
KLO1 171256Z 00004KT 04/03 A3003 RMK A01 T00430027  RH  089%=      5-min Rain = 0
KLO1 171257Z 35004KT 04/03 A3004 RMK A01 T00430027  RH  089%=      5-min Rain = 0
KLO1 171258Z 34005KT 04/03 A3004 RMK A01 T00430027  RH  089%=      5-min Rain = 0
KLO1 171259Z 34006KT 04/03 A3004 RMK A01 T00430026  RH  089%=      5-min Rain = 0
KLO1 171300Z 34005KT 04/03 A3004 RMK A01 T00430026  RH  089%=      5-min Rain = 0
KLO1 171301Z 34005KT 04/03 A3004 RMK A01 T00420025  RH  089%=      5-min Rain = 0
KLO1 171302Z 33006KT 04/02 A3004 RMK A01 T00410024  RH  089%=      5-min Rain = 0
KLO1 171303Z 33006KT 04/02 A3004 RMK A01 T00410024  RH  089%=      5-min Rain = 0
KLO1 171304Z 33005KT 04/02 A3004 RMK A01 T00400024  RH  089%=      5-min Rain = 0
KLO1 171305Z 33005KT 04/02 A3005 RMK A01 T00400024  RH  089%=      5-min Rain = 0
KLO1 171306Z 33005KT 04/02 A3005 RMK A01 T00390023  RH  089%=      5-min Rain = 0
KLO1 171307Z 33005KT 04/02 A3005 RMK A01 T00390023  RH  089%=      5-min Rain = 0
KLO1 171308Z 33007KT 04/02 A3005 RMK A01 T00390024  RH  089%=      5-min Rain = 0
KLO1 171309Z 33007KT 04/02 A3005 RMK A01 T00400024  RH  089%=      5-min Rain = 0
KLO1 171310Z 33008KT 04/02 A3005 RMK A01 T00400024  RH  089%=      5-min Rain = 0
KLO1 171311Z 33008KT 04/02 A3005 RMK A01 T00400024  RH  089%=      5-min Rain = 0
KLO1 171312Z 33008KT 04/02 A3005 RMK A01 T00400024  RH  089%=      5-min Rain = 0
KLO1 171313Z 33007KT 04/02 A3005 RMK A01 T00400023  RH  089%=      5-min Rain = 0
KLO1 171314Z 33007KT 04/02 A3005 RMK A01 T00400023  RH  089%=      5-min Rain = 0
KLO1 171315Z 34007KT 04/02 A3005 RMK A01 T00400023  RH  089%=      5-min Rain = 0
KLO1 171316Z 33008KT 04/02 A3006 RMK A01 T00390023  RH  089%=      5-min Rain = 0
KLO1 171317Z 33009KT 04/02 A3006 RMK A01 T00400023  RH  089%=      5-min Rain = 0
KLO1 171318Z 33008KT 04/02 A3006 RMK A01 T00400024  RH  089%=      5-min Rain = 0
KLO1 171319Z 33008KT 04/03 A3006 RMK A01 T00410025  RH  089%=      5-min Rain = 0
KLO1 171320Z 34009KT 04/03 A3006 RMK A01 T00420025  RH  089%=      5-min Rain = 0
KLO1 171321Z 33008KT 04/03 A3006 RMK A01 T00420026  RH  089%=      5-min Rain = 0
KLO1 171322Z 33009KT 04/03 A3006 RMK A01 T00430026  RH  089%=      5-min Rain = 0
KLO1 171323Z 33010KT 04/03 A3006 RMK A01 T00440026  RH  088%=      5-min Rain = 0
KLO1 171324Z 33010KT 05/03 A3006 RMK A01 T00450027  RH  088%=      5-min Rain = 0
KLO1 171325Z 33010KT 05/03 A3006 RMK A01 T00450027  RH  088%=      5-min Rain = 0
KLO1 171326Z 33011KT 05/03 A3006 RMK A01 T00460027  RH  088%=      5-min Rain = 0
KLO1 171327Z 33011KT 05/03 A3006 RMK A01 T00460027  RH  087%=      5-min Rain = 0
KLO1 171328Z 33011KT 05/03 A3007 RMK A01 T00470028  RH  087%=      5-min Rain = 0
KLO1 171329Z 33011KT 05/03 A3007 RMK A01 T00480027  RH  087%=      5-min Rain = 0
KLO1 171330Z 33011KT 05/03 A3007 RMK A01 T00480027  RH  087%=      5-min Rain = 0
KLO1 171331Z 33012KT 05/03 A3007 RMK A01 T00480027  RH  087%=      5-min Rain = 0
KLO1 171332Z 33012KT 05/03 A3007 RMK A01 T00490028  RH  086%=      5-min Rain = 0
KLO1 171333Z 33011KT 05/03 A3007 RMK A01 T00490028  RH  086%=      5-min Rain = 0
KLO1 171334Z 33011KT 05/03 A3007 RMK A01 T00500028  RH  086%=      5-min Rain = 0
KLO1 171335Z 33010KT 05/03 A3008 RMK A01 T00500029  RH  086%=      5-min Rain = 0
KLO1 171336Z 34010KT 05/03 A3008 RMK A01 T00510029  RH  086%=      5-min Rain = 0
KLO1 171337Z 34010KT 05/03 A3008 RMK A01 T00510029  RH  086%=      5-min Rain = 0
KLO1 171338Z 34010KT 05/03 A3008 RMK A01 T00510028  RH  085%=      5-min Rain = 0
KLO1 171339Z 34010KT 05/03 A3008 RMK A01 T00510029  RH  086%=      5-min Rain = 0
KLO1 171340Z 34010KT 05/03 A3008 RMK A01 T00510029  RH  086%=      5-min Rain = 0
KLO1 171341Z 34010KT 05/03 A3008 RMK A01 T00510030  RH  086%=      5-min Rain = 0
KLO1 171342Z 34009KT 05/03 A3008 RMK A01 T00520030  RH  086%=      5-min Rain = 0
KLO1 171343Z 34011KT 05/03 A3008 RMK A01 T00520031  RH  086%=      5-min Rain = 0
KLO1 171344Z 34011KT 05/03 A3008 RMK A01 T00530032  RH  086%=      5-min Rain = 0
KLO1 171345Z 34011KT 05/03 A3009 RMK A01 T00540033  RH  086%=      5-min Rain = 0
KLO1 171346Z 34013KT 06/03 A3009 RMK A01 T00550034  RH  086%=      5-min Rain = 0
KLO1 171347Z 34012KT 06/04 A3009 RMK A01 T00570035  RH  086%=      5-min Rain = 0
KLO1 171348Z 34012KT 06/04 A3009 RMK A01 T00590036  RH  085%=      5-min Rain = 0
KLO1 171349Z 34013KT 06/04 A3009 RMK A01 T00600036  RH  085%=      5-min Rain = 0
KLO1 171350Z 35012KT 06/04 A3009 RMK A01 T00610037  RH  084%=      5-min Rain = 0
KLO1 171351Z 34013KT 06/04 A3009 RMK A01 T00620037  RH  084%=      5-min Rain = 0
KLO1 171352Z 35013KT 06/04 A3009 RMK A01 T00630037  RH  083%=      5-min Rain = 0
KLO1 171353Z 35012KT 06/04 A3009 RMK A01 T00640037  RH  083%=      5-min Rain = 0
KLO1 171354Z 35012KT 07/04 A3009 RMK A01 T00650038  RH  083%=      5-min Rain = 0
KLO1 171355Z 35011KT 07/04 A301 RMK A01 T00660038  RH  082%=      5-min Rain = 0
KLO1 171356Z 35011KT 07/04 A301 RMK A01 T00670038  RH  082%=      5-min Rain = 0
KLO1 171357Z 35011KT 07/04 A301 RMK A01 T00680038  RH  081%=      5-min Rain = 0
KLO1 171358Z 35011KT 07/04 A301 RMK A01 T00690038  RH  081%=      5-min Rain = 0
KLO1 171359Z 36012KT 07/04 A301 RMK A01 T00700038  RH  081%=      5-min Rain = 0
KLO1 171400Z 35013G18KT 07/04 A301 RMK A01 T00710038  RH  080%=      5-min Rain = 0
KLO1 171401Z 00012KT 07/04 A301 RMK A01 T00720038  RH  079%=      5-min Rain = 0
KLO1 171402Z 35012KT 07/04 A301 RMK A01 T00730038  RH  078%=      5-min Rain = 0
KLO1 171403Z 35012G18KT 07/04 A301 RMK A01 T00740038  RH  078%=      5-min Rain = 0
KLO1 171404Z 00012KT 07/04 A301 RMK A01 T00740038  RH  078%=      5-min Rain = 0
KLO1 171405Z 36010KT 08/04 A301 RMK A01 T00750037  RH  077%=      5-min Rain = 0
KLO1 171406Z 36012KT 08/04 A301 RMK A01 T00750037  RH  077%=      5-min Rain = 0
KLO1 171407Z 35011KT 08/04 A301 RMK A01 T00750037  RH  077%=      5-min Rain = 0
KLO1 171408Z 36011KT 08/04 A3011 RMK A01 T00760037  RH  077%=      5-min Rain = 0
KLO1 171409Z 35011KT 08/04 A3011 RMK A01 T00760037  RH  076%=      5-min Rain = 0
KLO1 171410Z 36012KT 08/04 A3011 RMK A01 T00760037  RH  076%=      5-min Rain = 0
KLO1 171411Z 36011KT 08/04 A3011 RMK A01 T00760037  RH  076%=      5-min Rain = 0
KLO1 171412Z 35012KT 08/04 A3011 RMK A01 T00770037  RH  076%=      5-min Rain = 0
KLO1 171413Z 35012KT 08/04 A3011 RMK A01 T00770037  RH  076%=      5-min Rain = 0
KLO1 171414Z 35011KT 08/04 A3011 RMK A01 T00770037  RH  075%=      5-min Rain = 0
KLO1 171415Z 36011KT 08/04 A3011 RMK A01 T00770037  RH  075%=      5-min Rain = 0
KLO1 171416Z 35012KT 08/04 A3011 RMK A01 T00770037  RH  075%=      5-min Rain = 0
KLO1 171417Z 36012KT 08/04 A3012 RMK A01 T00780037  RH  075%=      5-min Rain = 0
KLO1 171418Z 35011KT 08/04 A3012 RMK A01 T00780037  RH  075%=      5-min Rain = 0
KLO1 171419Z 35011KT 08/04 A3012 RMK A01 T00780036  RH  075%=      5-min Rain = 0
KLO1 171420Z 35012KT 08/04 A3012 RMK A01 T00790037  RH  075%=      5-min Rain = 0
KLO1 171421Z 00011KT 08/04 A3012 RMK A01 T00790036  RH  074%=      5-min Rain = 0
KLO1 171422Z 35011KT 08/04 A3012 RMK A01 T00790036  RH  074%=      5-min Rain = 0
KLO1 171423Z 35010KT 08/04 A3012 RMK A01 T00790036  RH  074%=      5-min Rain = 0
KLO1 171424Z 36011KT 08/04 A3012 RMK A01 T00800036  RH  074%=      5-min Rain = 0
KLO1 171425Z 36010KT 08/04 A3012 RMK A01 T00800036  RH  074%=      5-min Rain = 0
KLO1 171426Z 36012KT 08/04 A3012 RMK A01 T00800036  RH  073%=      5-min Rain = 0
KLO1 171427Z 36011KT 08/04 A3012 RMK A01 T00810036  RH  073%=      5-min Rain = 0
KLO1 171428Z 36010KT 08/04 A3012 RMK A01 T00810036  RH  073%=      5-min Rain = 0
KLO1 171429Z 00010KT 08/04 A3012 RMK A01 T00820036  RH  073%=      5-min Rain = 0
KLO1 171430Z 35010KT 08/04 A3012 RMK A01 T00820036  RH  073%=      5-min Rain = 0
KLO1 171431Z 00010KT 08/04 A3012 RMK A01 T00820036  RH  073%=      5-min Rain = 0
KLO1 171432Z 36010KT 08/04 A3012 RMK A01 T00820036  RH  073%=      5-min Rain = 0
KLO1 171433Z 36011KT 08/04 A3013 RMK A01 T00820035  RH  072%=      5-min Rain = 0
KLO1 171434Z 36011KT 08/04 A3013 RMK A01 T00820035  RH  072%=      5-min Rain = 0
KLO1 171435Z 00011KT 08/04 A3013 RMK A01 T00830035  RH  072%=      5-min Rain = 0
KLO1 171436Z 00011KT 08/04 A3013 RMK A01 T00830036  RH  072%=      5-min Rain = 0
KLO1 171437Z 01013KT 08/04 A3013 RMK A01 T00830036  RH  072%=      5-min Rain = 0
KLO1 171438Z 01012KT 08/04 A3013 RMK A01 T00840035  RH  072%=      5-min Rain = 0
KLO1 171439Z 36012KT 08/04 A3013 RMK A01 T00840035  RH  071%=      5-min Rain = 0
KLO1 171440Z 00013KT 08/03 A3013 RMK A01 T00840034  RH  071%=      5-min Rain = 0
KLO1 171441Z 00012KT 09/03 A3013 RMK A01 T00850034  RH  070%=      5-min Rain = 0
KLO1 171442Z 01013KT 09/03 A3013 RMK A01 T00850034  RH  070%=      5-min Rain = 0
KLO1 171443Z 01010KT 09/04 A3013 RMK A01 T00850035  RH  071%=      5-min Rain = 0
KLO1 171444Z 01009KT 09/04 A3013 RMK A01 T00860037  RH  071%=      5-min Rain = 0
KLO1 171445Z 01011KT 09/04 A3013 RMK A01 T00870037  RH  071%=      5-min Rain = 0
KLO1 171446Z 01012KT 09/04 A3013 RMK A01 T00870035  RH  070%=      5-min Rain = 0
KLO1 171447Z 01012KT 09/04 A3013 RMK A01 T00880035  RH  069%=      5-min Rain = 0
KLO1 171448Z 01012KT 09/03 A3013 RMK A01 T00880034  RH  069%=      5-min Rain = 0
KLO1 171449Z 00011KT 09/03 A3013 RMK A01 T00890034  RH  068%=      5-min Rain = 0
KLO1 171450Z 01012KT 09/03 A3013 RMK A01 T00890033  RH  068%=      5-min Rain = 0
KLO1 171451Z 01014KT 09/03 A3013 RMK A01 T00900032  RH  067%=      5-min Rain = 0
KLO1 171452Z 01011KT 09/03 A3013 RMK A01 T00900032  RH  067%=      5-min Rain = 0
KLO1 171453Z 01013KT 09/03 A3013 RMK A01 T00900032  RH  067%=      5-min Rain = 0
KLO1 171454Z 01012KT 09/03 A3013 RMK A01 T00910032  RH  067%=      5-min Rain = 0
KLO1 171455Z 02012KT 09/03 A3013 RMK A01 T00910033  RH  067%=      5-min Rain = 0
KLO1 171456Z 01012KT 09/03 A3013 RMK A01 T00920033  RH  067%=      5-min Rain = 0
KLO1 171457Z 02013KT 09/03 A3013 RMK A01 T00920032  RH  066%=      5-min Rain = 0
KLO1 171458Z 01011G16KT 09/03 A3013 RMK A01 T00920032  RH  066%=      5-min Rain = 0
KLO1 171459Z 01012KT 09/03 A3013 RMK A01 T00930031  RH  065%=      5-min Rain = 0
KLO1 171500Z 01013KT 09/03 A3013 RMK A01 T00940031  RH  065%=      5-min Rain = 0
KLO1 171501Z 01013KT 09/03 A3013 RMK A01 T00940031  RH  065%=      5-min Rain = 0
KLO1 171502Z 01012KT 09/03 A3013 RMK A01 T00940031  RH  064%=      5-min Rain = 0
KLO1 171503Z 01013KT 10/03 A3013 RMK A01 T00950030  RH  064%=      5-min Rain = 0
KLO1 171504Z 01016KT 10/03 A3013 RMK A01 T00960029  RH  063%=      5-min Rain = 0
KLO1 171505Z 02015KT 10/03 A3013 RMK A01 T00960027  RH  062%=      5-min Rain = 0
KLO1 171506Z 01015KT 10/03 A3013 RMK A01 T00960027  RH  062%=      5-min Rain = 0
KLO1 171507Z 01012KT 10/03 A3013 RMK A01 T00960028  RH  062%=      5-min Rain = 0
KLO1 171508Z 01010KT 10/03 A3013 RMK A01 T00980030  RH  063%=      5-min Rain = 0
KLO1 171509Z 01014G19KT 10/03 A3013 RMK A01 T00990030  RH  062%=      5-min Rain = 0
KLO1 171510Z 01013KT 10/03 A3013 RMK A01 T00990028  RH  061%=      5-min Rain = 0
KLO1 171511Z 01015KT 10/03 A3013 RMK A01 T00990029  RH  061%=      5-min Rain = 0
KLO1 171512Z 01013KT 10/03 A3013 RMK A01 T01000028  RH  061%=      5-min Rain = 0
KLO1 171513Z 01016KT 10/03 A3013 RMK A01 T01000028  RH  061%=      5-min Rain = 0
KLO1 171514Z 01012KT 10/03 A3013 RMK A01 T01000028  RH  061%=      5-min Rain = 0
KLO1 171515Z 01014KT 10/03 A3013 RMK A01 T01010028  RH  060%=      5-min Rain = 0
KLO1 171516Z 01011KT 10/03 A3013 RMK A01 T01010028  RH  060%=      5-min Rain = 0
KLO1 171517Z 01013KT 10/03 A3013 RMK A01 T01020029  RH  061%=      5-min Rain = 0
KLO1 171518Z 02014KT 10/03 A3013 RMK A01 T01030028  RH  060%=      5-min Rain = 0
KLO1 171519Z 01016KT 10/03 A3013 RMK A01 T01030027  RH  059%=      5-min Rain = 0
KLO1 171520Z 01012KT 10/03 A3013 RMK A01 T01030025  RH  059%=      5-min Rain = 0
KLO1 171521Z 01012KT 10/03 A3013 RMK A01 T01030028  RH  060%=      5-min Rain = 0
KLO1 171522Z 01014KT 10/03 A3013 RMK A01 T01040028  RH  059%=      5-min Rain = 0
KLO1 171523Z 01014KT 11/03 A3013 RMK A01 T01050027  RH  059%=      5-min Rain = 0
KLO1 171524Z 00013KT 11/03 A3014 RMK A01 T01050027  RH  059%=      5-min Rain = 0
KLO1 171525Z 01015KT 11/03 A3014 RMK A01 T01050025  RH  058%=      5-min Rain = 0
KLO1 171526Z 01015KT 11/02 A3014 RMK A01 T01060024  RH  057%=      5-min Rain = 0
KLO1 171527Z 00014KT 11/02 A3013 RMK A01 T01060022  RH  056%=      5-min Rain = 0
KLO1 171528Z 00017KT 11/02 A3013 RMK A01 T01060022  RH  056%=      5-min Rain = 0
KLO1 171529Z 01015KT 11/02 A3014 RMK A01 T01070021  RH  055%=      5-min Rain = 0
KLO1 171530Z 01016KT 11/02 A3014 RMK A01 T01070021  RH  055%=      5-min Rain = 0
KLO1 171531Z 00014KT 11/02 A3014 RMK A01 T01070021  RH  055%=      5-min Rain = 0
KLO1 171532Z 01017G22KT 11/02 A3014 RMK A01 T01080020  RH  055%=      5-min Rain = 0
KLO1 171533Z 01018KT 11/02 A3014 RMK A01 T01090019  RH  054%=      5-min Rain = 0
KLO1 171534Z 01017KT 11/02 A3014 RMK A01 T01090020  RH  054%=      5-min Rain = 0
KLO1 171535Z 01017KT 11/02 A3013 RMK A01 T01090019  RH  054%=      5-min Rain = 0
KLO1 171536Z 01017KT 11/02 A3013 RMK A01 T01090019  RH  054%=      5-min Rain = 0
KLO1 171537Z 02017KT 11/02 A3013 RMK A01 T01100019  RH  053%=      5-min Rain = 0
KLO1 171538Z 01016KT 11/02 A3013 RMK A01 T01110018  RH  053%=      5-min Rain = 0
KLO1 171539Z 01018G24KT 11/02 A3013 RMK A01 T01110019  RH  053%=      5-min Rain = 0
KLO1 171540Z 00021KT 11/02 A3013 RMK A01 T01120016  RH  052%=      5-min Rain = 0
KLO1 171541Z 01018G23KT 11/01 A3013 RMK A01 T01110014  RH  051%=      5-min Rain = 0
KLO1 171542Z 02019KT 11/02 A3013 RMK A01 T01110016  RH  052%=      5-min Rain = 0
KLO1 171543Z 01015KT 11/02 A3013 RMK A01 T01120017  RH  052%=      5-min Rain = 0
KLO1 171544Z 02017KT 11/02 A3013 RMK A01 T01130019  RH  052%=      5-min Rain = 0
KLO1 171545Z 01020KT 11/02 A3014 RMK A01 T01140018  RH  051%=      5-min Rain = 0
KLO1 171546Z 02019G24KT 11/02 A3014 RMK A01 T01140016  RH  051%=      5-min Rain = 0
KLO1 171547Z 02023KT 11/02 A3014 RMK A01 T01140016  RH  051%=      5-min Rain = 0
KLO1 171548Z 02023KT 11/01 A3014 RMK A01 T01140014  RH  050%=      5-min Rain = 0
KLO1 171549Z 01023G28KT 11/01 A3014 RMK A01 T01140014  RH  050%=      5-min Rain = 0
KLO1 171550Z 02021KT 11/01 A3014 RMK A01 T01140013  RH  050%=      5-min Rain = 0
KLO1 171551Z 02022KT 12/01 A3014 RMK A01 T01150014  RH  050%=      5-min Rain = 0
KLO1 171552Z 01016KT 12/01 A3014 RMK A01 T01150013  RH  050%=      5-min Rain = 0
KLO1 171553Z 01015KT 12/02 A3014 RMK A01 T01160017  RH  050%=      5-min Rain = 0
KLO1 171554Z 01016G21KT 12/02 A3014 RMK A01 T01180016  RH  049%=      5-min Rain = 0
KLO1 171555Z 01019G27KT 12/02 A3014 RMK A01 T01200017  RH  050%=      5-min Rain = 0
KLO1 171556Z 01022KT 12/01 A3014 RMK A01 T01200014  RH  048%=      5-min Rain = 0
KLO1 171557Z 01022G27KT 12/01 A3014 RMK A01 T01190014  RH  049%=      5-min Rain = 0
KLO1 171558Z 01023KT 12/01 A3014 RMK A01 T01190014  RH  048%=      5-min Rain = 0
KLO1 171559Z 02023KT 12/01 A3014 RMK A01 T01180014  RH  049%=      5-min Rain = 0
KLO1 171600Z 02019G24KT 12/01 A3014 RMK A01 T01180013  RH  048%=      5-min Rain = 0
KLO1 171601Z 01018G23KT 12/02 A3014 RMK A01 T01190015  RH  049%=      5-min Rain = 0
KLO1 171602Z 02021KT 12/02 A3014 RMK A01 T01200015  RH  049%=      5-min Rain = 0
KLO1 171603Z 02017KT 12/02 A3014 RMK A01 T01210016  RH  049%=      5-min Rain = 0
KLO1 171604Z 01020KT 12/02 A3014 RMK A01 T01210015  RH  048%=      5-min Rain = 0
KLO1 171605Z 01020KT 12/02 A3014 RMK A01 T01210015  RH  048%=      5-min Rain = 0
KLO1 171606Z 01017KT 12/02 A3014 RMK A01 T01210015  RH  048%=      5-min Rain = 0
KLO1 171607Z 01015G20KT 12/02 A3014 RMK A01 T01220016  RH  048%=      5-min Rain = 0
KLO1 171608Z 01017KT 12/02 A3014 RMK A01 T01240017  RH  048%=      5-min Rain = 0
KLO1 171609Z 01015KT 12/02 A3014 RMK A01 T01240015  RH  047%=      5-min Rain = 0
KLO1 171610Z 03020G25KT 12/02 A3014 RMK A01 T01240016  RH  048%=      5-min Rain = 0
KLO1 171611Z 01020KT 12/02 A3014 RMK A01 T01240015  RH  047%=      5-min Rain = 0
KLO1 171612Z 02019KT 12/02 A3014 RMK A01 T01240015  RH  047%=      5-min Rain = 0
KLO1 171613Z 01019KT 12/02 A3015 RMK A01 T01230015  RH  047%=      5-min Rain = 0
KLO1 171614Z 02019KT 12/02 A3015 RMK A01 T01240015  RH  047%=      5-min Rain = 0
KLO1 171615Z 02019KT 12/01 A3015 RMK A01 T01240014  RH  047%=      5-min Rain = 0
KLO1 171616Z 01018KT 12/01 A3015 RMK A01 T01240014  RH  047%=      5-min Rain = 0
KLO1 171617Z 01018KT 12/01 A3015 RMK A01 T01240014  RH  047%=      5-min Rain = 0
KLO1 171618Z 01018G23KT 12/01 A3015 RMK A01 T01240014  RH  047%=      5-min Rain = 0
KLO1 171619Z 02017KT 12/01 A3015 RMK A01 T01240014  RH  047%=      5-min Rain = 0
KLO1 171620Z 03018KT 13/02 A3015 RMK A01 T01250015  RH  047%=      5-min Rain = 0
KLO1 171621Z 02018KT 13/02 A3015 RMK A01 T01250015  RH  047%=      5-min Rain = 0
KLO1 171622Z 00017KT 13/01 A3015 RMK A01 T01250014  RH  047%=      5-min Rain = 0
KLO1 171623Z 01019KT 13/01 A3015 RMK A01 T01250014  RH  047%=      5-min Rain = 0
KLO1 171624Z 00019KT 13/01 A3015 RMK A01 T01250014  RH  047%=      5-min Rain = 0
KLO1 171625Z 01016G21KT 12/01 A3015 RMK A01 T01240013  RH  047%=      5-min Rain = 0
KLO1 171626Z 01019KT 12/01 A3015 RMK A01 T01240014  RH  047%=      5-min Rain = 0
KLO1 171627Z 00017KT 13/01 A3015 RMK A01 T01250014  RH  047%=      5-min Rain = 0
KLO1 171628Z 00016KT 13/01 A3015 RMK A01 T01260014  RH  047%=      5-min Rain = 0
KLO1 171629Z 00014KT 13/02 A3015 RMK A01 T01270015  RH  047%=      5-min Rain = 0
KLO1 171630Z 01019KT 13/02 A3015 RMK A01 T01270015  RH  046%=      5-min Rain = 0
KLO1 171631Z 02016G21KT 13/02 A3015 RMK A01 T01280016  RH  046%=      5-min Rain = 0
KLO1 171632Z 01015KT 13/02 A3015 RMK A01 T01280016  RH  046%=      5-min Rain = 0
KLO1 171633Z 01016KT 13/02 A3015 RMK A01 T01290016  RH  046%=      5-min Rain = 0
KLO1 171634Z 02018KT 13/02 A3015 RMK A01 T01300015  RH  046%=      5-min Rain = 0
KLO1 171635Z 02014KT 13/02 A3015 RMK A01 T01280015  RH  046%=      5-min Rain = 0
KLO1 171636Z 02016KT 13/02 A3015 RMK A01 T01290017  RH  047%=      5-min Rain = 0
KLO1 171637Z 01016KT 13/02 A3015 RMK A01 T01310017  RH  046%=      5-min Rain = 0
KLO1 171638Z 01015KT 13/02 A3015 RMK A01 T01320017  RH  046%=      5-min Rain = 0
KLO1 171639Z 01018KT 13/02 A3015 RMK A01 T01320016  RH  045%=      5-min Rain = 0
KLO1 171640Z 00018KT 13/02 A3015 RMK A01 T01310015  RH  045%=      5-min Rain = 0
KLO1 171641Z 01014KT 13/02 A3016 RMK A01 T01300016  RH  046%=      5-min Rain = 0
KLO1 171642Z 02017G22KT 13/02 A3016 RMK A01 T01320017  RH  046%=      5-min Rain = 0
KLO1 171643Z 02018KT 13/02 A3016 RMK A01 T01330016  RH  045%=      5-min Rain = 0
KLO1 171644Z 03016KT 13/02 A3016 RMK A01 T01320016  RH  045%=      5-min Rain = 0
KLO1 171645Z 03018KT 13/02 A3016 RMK A01 T01320016  RH  045%=      5-min Rain = 0
KLO1 171646Z 02016KT 13/02 A3016 RMK A01 T01320016  RH  045%=      5-min Rain = 0
KLO1 171647Z 01017KT 13/02 A3016 RMK A01 T01320015  RH  045%=      5-min Rain = 0
KLO1 171648Z 02015G20KT 13/02 A3016 RMK A01 T01320015  RH  045%=      5-min Rain = 0
KLO1 171649Z 01017KT 13/02 A3016 RMK A01 T01330017  RH  045%=      5-min Rain = 0
KLO1 171650Z 01017KT 13/02 A3016 RMK A01 T01340015  RH  044%=      5-min Rain = 0
KLO1 171651Z 00018KT 13/01 A3016 RMK A01 T01330014  RH  044%=      5-min Rain = 0
KLO1 171652Z 01016KT 13/01 A3016 RMK A01 T01310013  RH  045%=      5-min Rain = 0
KLO1 171653Z 01017KT 13/02 A3016 RMK A01 T01320015  RH  045%=      5-min Rain = 0
KLO1 171654Z 01015KT 13/02 A3016 RMK A01 T01330016  RH  045%=      5-min Rain = 0
KLO1 171655Z 01015KT 14/02 A3016 RMK A01 T01350017  RH  045%=      5-min Rain = 0
KLO1 171656Z 01015KT 14/02 A3016 RMK A01 T01370018  RH  044%=      5-min Rain = 0
KLO1 171657Z 01017KT 14/02 A3016 RMK A01 T01380017  RH  044%=      5-min Rain = 0
KLO1 171658Z 01017KT 14/02 A3016 RMK A01 T01390017  RH  044%=      5-min Rain = 0
KLO1 171659Z 02014KT 14/02 A3016 RMK A01 T01380016  RH  044%=      5-min Rain = 0
KLO1 171700Z 02013KT 14/02 A3016 RMK A01 T01380018  RH  044%=      5-min Rain = 0
KLO1 171701Z 02017KT 14/02 A3016 RMK A01 T01390018  RH  044%=      5-min Rain = 0
KLO1 171702Z 01014KT 14/02 A3016 RMK A01 T01400018  RH  044%=      5-min Rain = 0
KLO1 171703Z 01017KT 14/02 A3016 RMK A01 T01400018  RH  043%=      5-min Rain = 0
KLO1 171704Z 01018KT 14/02 A3016 RMK A01 T01400016  RH  043%=      5-min Rain = 0
KLO1 171705Z 01015KT 14/02 A3016 RMK A01 T01380015  RH  043%=      5-min Rain = 0
KLO1 171706Z 01014KT 14/02 A3016 RMK A01 T01370015  RH  044%=      5-min Rain = 0
KLO1 171707Z 01014KT 14/02 A3016 RMK A01 T01390018  RH  044%=      5-min Rain = 0
KLO1 171708Z 02016KT 14/02 A3016 RMK A01 T01400017  RH  043%=      5-min Rain = 0
KLO1 171709Z 02017KT 14/02 A3016 RMK A01 T01400016  RH  043%=      5-min Rain = 0
KLO1 171710Z 02014KT 14/02 A3016 RMK A01 T01390016  RH  043%=      5-min Rain = 0
KLO1 171711Z 00014G19KT 14/02 A3016 RMK A01 T01400017  RH  043%=      5-min Rain = 0
KLO1 171712Z 00016KT 14/02 A3016 RMK A01 T01410016  RH  043%=      5-min Rain = 0
KLO1 171713Z 01016KT 14/02 A3016 RMK A01 T01400015  RH  043%=      5-min Rain = 0
KLO1 171714Z 00015KT 14/02 A3016 RMK A01 T01390015  RH  043%=      5-min Rain = 0
KLO1 171715Z 00012KT 14/02 A3016 RMK A01 T01370015  RH  043%=      5-min Rain = 0
KLO1 171716Z 36013KT 14/02 A3016 RMK A01 T01370015  RH  043%=      5-min Rain = 0
KLO1 171717Z 02015KT 14/02 A3016 RMK A01 T01390017  RH  044%=      5-min Rain = 0
KLO1 171718Z 02017KT 14/02 A3016 RMK A01 T01430019  RH  043%=      5-min Rain = 0
KLO1 171719Z 02014KT 14/02 A3016 RMK A01 T01440018  RH  042%=      5-min Rain = 0
KLO1 171720Z 02014KT 14/02 A3016 RMK A01 T01430017  RH  042%=      5-min Rain = 0
KLO1 171721Z 01016G21KT 14/02 A3016 RMK A01 T01420017  RH  043%=      5-min Rain = 0
KLO1 171722Z 01017KT 14/02 A3016 RMK A01 T01410016  RH  042%=      5-min Rain = 0
KLO1 171723Z 02013KT 14/02 A3016 RMK A01 T01410018  RH  043%=      5-min Rain = 0
KLO1 171724Z 01014KT 14/02 A3016 RMK A01 T01430018  RH  043%=      5-min Rain = 0
KLO1 171725Z 02015G20KT 14/02 A3016 RMK A01 T01440019  RH  043%=      5-min Rain = 0
KLO1 171726Z 02018KT 15/02 A3016 RMK A01 T01460018  RH  042%=      5-min Rain = 0
KLO1 171727Z 03017KT 15/02 A3016 RMK A01 T01450017  RH  042%=      5-min Rain = 0
KLO1 171728Z 02015KT 15/02 A3016 RMK A01 T01450017  RH  042%=      5-min Rain = 0
KLO1 171729Z 03017KT 15/02 A3016 RMK A01 T01450017  RH  042%=      5-min Rain = 0
KLO1 171730Z 02014KT 15/02 A3016 RMK A01 T01450017  RH  042%=      5-min Rain = 0
KLO1 171731Z 02015KT 15/02 A3016 RMK A01 T01460018  RH  042%=      5-min Rain = 0
KLO1 171732Z 02016KT 15/02 A3016 RMK A01 T01460017  RH  041%=      5-min Rain = 0
KLO1 171733Z 03013KT 15/02 A3016 RMK A01 T01450017  RH  042%=      5-min Rain = 0
KLO1 171734Z 02014KT 15/02 A3016 RMK A01 T01460019  RH  042%=      5-min Rain = 0
KLO1 171735Z 01013KT 15/02 A3016 RMK A01 T01470017  RH  041%=      5-min Rain = 0
KLO1 171736Z 02013KT 15/02 A3016 RMK A01 T01460018  RH  042%=      5-min Rain = 0
KLO1 171737Z 01012KT 15/02 A3016 RMK A01 T01470019  RH  042%=      5-min Rain = 0
KLO1 171738Z 01013KT 15/02 A3015 RMK A01 T01500020  RH  041%=      5-min Rain = 0
KLO1 171739Z 02016KT 15/02 A3015 RMK A01 T01510019  RH  041%=      5-min Rain = 0
KLO1 171740Z 02017KT 15/02 A3015 RMK A01 T01510017  RH  040%=      5-min Rain = 0
KLO1 171741Z 02017KT 15/02 A3015 RMK A01 T01490015  RH  040%=      5-min Rain = 0
KLO1 171742Z 02016KT 15/02 A3016 RMK A01 T01470015  RH  041%=      5-min Rain = 0
KLO1 171743Z 01012KT 15/02 A3016 RMK A01 T01470016  RH  041%=      5-min Rain = 0
KLO1 171744Z 01013KT 15/02 A3016 RMK A01 T01480017  RH  041%=      5-min Rain = 0
KLO1 171745Z 01012KT 15/02 A3016 RMK A01 T01500018  RH  041%=      5-min Rain = 0
KLO1 171746Z 02013G18KT 15/02 A3016 RMK A01 T01500018  RH  041%=      5-min Rain = 0
KLO1 171747Z 03016KT 15/02 A3015 RMK A01 T01520019  RH  041%=      5-min Rain = 0
KLO1 171748Z 03015KT 15/02 A3015 RMK A01 T01530018  RH  040%=      5-min Rain = 0
KLO1 171749Z 03015KT 15/02 A3015 RMK A01 T01540018  RH  040%=      5-min Rain = 0
KLO1 171750Z 03013KT 15/02 A3015 RMK A01 T01540019  RH  040%=      5-min Rain = 0
KLO1 171751Z 03014KT 16/02 A3015 RMK A01 T01560021  RH  040%=      5-min Rain = 0
KLO1 171752Z 01014KT 16/02 A3015 RMK A01 T01560016  RH  039%=      5-min Rain = 0
KLO1 171753Z 00014KT 15/02 A3016 RMK A01 T01530016  RH  040%=      5-min Rain = 0
KLO1 171754Z 01012KT 15/02 A3016 RMK A01 T01530017  RH  040%=      5-min Rain = 0
KLO1 171755Z 01011KT 15/02 A3016 RMK A01 T01530017  RH  040%=      5-min Rain = 0
KLO1 171756Z 01010KT 15/02 A3016 RMK A01 T01530016  RH  040%=      5-min Rain = 0
KLO1 171757Z 01010KT 15/02 A3016 RMK A01 T01510016  RH  040%=      5-min Rain = 0
KLO1 171758Z 02012KT 15/02 A3016 RMK A01 T01520017  RH  040%=      5-min Rain = 0
KLO1 171759Z 04011KT 15/02 A3016 RMK A01 T01530018  RH  040%=      5-min Rain = 0
KLO1 171800Z 03010KT 16/02 A3016 RMK A01 T01550018  RH  040%=      5-min Rain = 0
KLO1 171801Z 02011KT 15/02 A3016 RMK A01 T01540017  RH  039%=      5-min Rain = 0
KLO1 171802Z 02008KT 15/02 A3016 RMK A01 T01530015  RH  039%=      5-min Rain = 0
KLO1 171803Z 03008KT 15/02 A3016 RMK A01 T01520016  RH  040%=      5-min Rain = 0
KLO1 171804Z 01010KT 15/02 A3016 RMK A01 T01540019  RH  040%=      5-min Rain = 0
KLO1 171805Z 02008KT 16/02 A3016 RMK A01 T01560018  RH  039%=      5-min Rain = 0
KLO1 171806Z 35009KT 16/02 A3016 RMK A01 T01560018  RH  039%=      5-min Rain = 0
KLO1 171807Z 34009KT 16/02 A3016 RMK A01 T01560018  RH  039%=      5-min Rain = 0
KLO1 171808Z 35010KT 16/02 A3016 RMK A01 T01560016  RH  039%=      5-min Rain = 0
KLO1 171809Z 02009KT 16/02 A3016 RMK A01 T01550017  RH  039%=      5-min Rain = 0
KLO1 171810Z 02008KT 16/02 A3016 RMK A01 T01560016  RH  039%=      5-min Rain = 0
KLO1 171811Z 02006KT 16/02 A3016 RMK A01 T01550016  RH  039%=      5-min Rain = 0
KLO1 171812Z 36008KT 16/02 A3016 RMK A01 T01550018  RH  039%=      5-min Rain = 0
KLO1 171813Z 01012KT 16/02 A3016 RMK A01 T01580019  RH  039%=      5-min Rain = 0
KLO1 171814Z 01013KT 16/02 A3016 RMK A01 T01590017  RH  038%=      5-min Rain = 0
KLO1 171815Z 36010KT 16/02 A3015 RMK A01 T01580015  RH  038%=      5-min Rain = 0
KLO1 171816Z 01011KT 16/02 A3015 RMK A01 T01560015  RH  039%=      5-min Rain = 0
KLO1 171817Z 01010KT 16/02 A3015 RMK A01 T01560016  RH  039%=      5-min Rain = 0
KLO1 171818Z 01011KT 16/02 A3015 RMK A01 T01560015  RH  038%=      5-min Rain = 0
KLO1 171819Z 03015KT 16/02 A3015 RMK A01 T01570017  RH  039%=      5-min Rain = 0
KLO1 171820Z 02017KT 16/02 A3015 RMK A01 T01590017  RH  038%=      5-min Rain = 0
KLO1 171821Z 02014KT 16/02 A3015 RMK A01 T01590016  RH  038%=      5-min Rain = 0
KLO1 171822Z 02012KT 16/02 A3015 RMK A01 T01580016  RH  038%=      5-min Rain = 0
KLO1 171823Z 02014KT 16/02 A3014 RMK A01 T01580016  RH  038%=      5-min Rain = 0
KLO1 171824Z 03013KT 16/02 A3014 RMK A01 T01570017  RH  039%=      5-min Rain = 0
KLO1 171825Z 03014KT 16/02 A3014 RMK A01 T01600018  RH  038%=      5-min Rain = 0
KLO1 171826Z 02011KT 16/02 A3014 RMK A01 T01600016  RH  038%=      5-min Rain = 0
KLO1 171827Z 02013KT 16/02 A3014 RMK A01 T01590016  RH  038%=      5-min Rain = 0
KLO1 171828Z 03014KT 16/02 A3014 RMK A01 T01600017  RH  038%=      5-min Rain = 0
KLO1 171829Z 02015KT 16/02 A3014 RMK A01 T01610017  RH  038%=      5-min Rain = 0
KLO1 171830Z 02011KT 16/02 A3014 RMK A01 T01600016  RH  038%=      5-min Rain = 0
KLO1 171831Z 00010KT 16/02 A3014 RMK A01 T01600018  RH  038%=      5-min Rain = 0
KLO1 171832Z 36008KT 16/02 A3014 RMK A01 T01610015  RH  037%=      5-min Rain = 0
KLO1 171833Z 00009KT 16/02 A3014 RMK A01 T01590015  RH  038%=      5-min Rain = 0
KLO1 171834Z 01012KT 16/02 A3014 RMK A01 T01600018  RH  038%=      5-min Rain = 0
KLO1 171835Z 02010KT 16/02 A3014 RMK A01 T01610016  RH  038%=      5-min Rain = 0
KLO1 171836Z 02009KT 16/02 A3014 RMK A01 T01620018  RH  038%=      5-min Rain = 0
KLO1 171837Z 02010KT 16/02 A3014 RMK A01 T01640019  RH  038%=      5-min Rain = 0
KLO1 171838Z 02010KT 17/02 A3014 RMK A01 T01660020  RH  037%=      5-min Rain = 0
KLO1 171839Z 01012KT 17/02 A3014 RMK A01 T01670019  RH  037%=      5-min Rain = 0
KLO1 171840Z 00010KT 17/02 A3014 RMK A01 T01660016  RH  036%=      5-min Rain = 0
KLO1 171841Z 00013KT 16/02 A3013 RMK A01 T01640016  RH  037%=      5-min Rain = 0
KLO1 171842Z 02013KT 16/02 A3013 RMK A01 T01630016  RH  037%=      5-min Rain = 0
KLO1 171843Z 02014KT 16/02 A3013 RMK A01 T01630018  RH  037%=      5-min Rain = 0
KLO1 171844Z 01015KT 16/02 A3013 RMK A01 T01640016  RH  037%=      5-min Rain = 0
KLO1 171845Z 01015KT 16/02 A3013 RMK A01 T01620015  RH  037%=      5-min Rain = 0
KLO1 171846Z 35011KT 16/02 A3013 RMK A01 T01610015  RH  037%=      5-min Rain = 0
KLO1 171847Z 35011KT 16/02 A3013 RMK A01 T01610015  RH  037%=      5-min Rain = 0
KLO1 171848Z 00009KT 16/01 A3013 RMK A01 T01610014  RH  037%=      5-min Rain = 0
KLO1 171849Z 35009KT 16/02 A3012 RMK A01 T01610016  RH  037%=      5-min Rain = 0
KLO1 171850Z 01012G17KT 16/02 A3012 RMK A01 T01620015  RH  037%=      5-min Rain = 0
KLO1 171851Z 02015KT 16/02 A3012 RMK A01 T01630017  RH  037%=      5-min Rain = 0
KLO1 171852Z 03014G19KT 16/02 A3012 RMK A01 T01630016  RH  037%=      5-min Rain = 0
KLO1 171853Z 01014KT 16/02 A3012 RMK A01 T01630016  RH  037%=      5-min Rain = 0
KLO1 171854Z 36012KT 16/01 A3012 RMK A01 T01620014  RH  037%=      5-min Rain = 0
KLO1 171855Z 01012KT 16/02 A3012 RMK A01 T01610015  RH  037%=      5-min Rain = 0
KLO1 171856Z 00012KT 16/02 A3012 RMK A01 T01620015  RH  037%=      5-min Rain = 0
KLO1 171857Z 34010G15KT 16/02 A3012 RMK A01 T01630016  RH  037%=      5-min Rain = 0
KLO1 171858Z 35012KT 16/02 A3012 RMK A01 T01640017  RH  037%=      5-min Rain = 0
KLO1 171859Z 01011G16KT 17/02 A3012 RMK A01 T01660017  RH  037%=      5-min Rain = 0
KLO1 171900Z 02015KT 17/02 A3012 RMK A01 T01670016  RH  036%=      5-min Rain = 0
KLO1 171901Z 02015KT 17/02 A3012 RMK A01 T01670016  RH  036%=      5-min Rain = 0
KLO1 171902Z 02014KT 17/02 A3012 RMK A01 T01660017  RH  036%=      5-min Rain = 0
KLO1 171903Z 01013KT 17/02 A3012 RMK A01 T01650016  RH  036%=      5-min Rain = 0
KLO1 171904Z 02014KT 17/02 A3012 RMK A01 T01650016  RH  037%=      5-min Rain = 0
KLO1 171905Z 01012KT 16/02 A3012 RMK A01 T01640016  RH  037%=      5-min Rain = 0
KLO1 171906Z 01016KT 16/02 A3011 RMK A01 T01640016  RH  037%=      5-min Rain = 0
KLO1 171907Z 01016KT 16/02 A3011 RMK A01 T01640015  RH  036%=      5-min Rain = 0
KLO1 171908Z 01014KT 16/01 A3011 RMK A01 T01640014  RH  036%=      5-min Rain = 0
KLO1 171909Z 00012KT 16/01 A3011 RMK A01 T01640014  RH  036%=      5-min Rain = 0
KLO1 171910Z 01010KT 16/01 A3011 RMK A01 T01640014  RH  036%=      5-min Rain = 0
KLO1 171911Z 02013KT 17/02 A3011 RMK A01 T01650016  RH  037%=      5-min Rain = 0
KLO1 171912Z 02011KT 17/02 A3011 RMK A01 T01660016  RH  036%=      5-min Rain = 0
KLO1 171913Z 01011KT 17/02 A3011 RMK A01 T01660016  RH  036%=      5-min Rain = 0
KLO1 171914Z 02015KT 17/02 A3011 RMK A01 T01660016  RH  036%=      5-min Rain = 0
KLO1 171915Z 02015KT 17/02 A3011 RMK A01 T01670015  RH  036%=      5-min Rain = 0
KLO1 171916Z 02016KT 17/02 A3011 RMK A01 T01670015  RH  036%=      5-min Rain = 0
KLO1 171917Z 02016KT 17/02 A3011 RMK A01 T01670015  RH  036%=      5-min Rain = 0
KLO1 171918Z 02015KT 17/01 A3011 RMK A01 T01660014  RH  036%=      5-min Rain = 0
KLO1 171919Z 01011KT 17/01 A3011 RMK A01 T01650014  RH  036%=      5-min Rain = 0
KLO1 171920Z 01010KT 17/02 A3011 RMK A01 T01650015  RH  036%=      5-min Rain = 0
KLO1 171921Z 02009KT 17/02 A3011 RMK A01 T01670015  RH  036%=      5-min Rain = 0
KLO1 171922Z 03011G16KT 17/02 A3011 RMK A01 T01670016  RH  036%=      5-min Rain = 0
KLO1 171923Z 03014KT 17/02 A3011 RMK A01 T01690016  RH  036%=      5-min Rain = 0
KLO1 171924Z 03013KT 17/01 A3011 RMK A01 T01670014  RH  036%=      5-min Rain = 0
KLO1 171925Z 03011KT 17/02 A3011 RMK A01 T01660015  RH  036%=      5-min Rain = 0
KLO1 171926Z 02011KT 17/02 A3011 RMK A01 T01680019  RH  037%=      5-min Rain = 0
KLO1 171927Z 00010KT 17/02 A3011 RMK A01 T01710017  RH  036%=      5-min Rain = 0
KLO1 171928Z 00010KT 17/02 A3011 RMK A01 T01690016  RH  036%=      5-min Rain = 0
KLO1 171929Z 35009KT 17/02 A3011 RMK A01 T01680016  RH  036%=      5-min Rain = 0
KLO1 171930Z 36012KT 17/02 A3011 RMK A01 T01670015  RH  036%=      5-min Rain = 0
KLO1 171931Z 01015KT 17/02 A301 RMK A01 T01690015  RH  036%=      5-min Rain = 0
KLO1 171932Z 02016KT 17/02 A301 RMK A01 T01700015  RH  035%=      5-min Rain = 0
KLO1 171933Z 03016KT 17/01 A301 RMK A01 T01700014  RH  035%=      5-min Rain = 0
KLO1 171934Z 02014KT 17/01 A301 RMK A01 T01680013  RH  035%=      5-min Rain = 0
KLO1 171935Z 02014KT 17/01 A301 RMK A01 T01680014  RH  035%=      5-min Rain = 0
KLO1 171936Z 02012KT 17/01 A301 RMK A01 T01700013  RH  035%=      5-min Rain = 0
KLO1 171937Z 01012KT 17/01 A301 RMK A01 T01700014  RH  035%=      5-min Rain = 0
KLO1 171938Z 00013KT 17/01 A301 RMK A01 T01710014  RH  035%=      5-min Rain = 0
KLO1 171939Z 01009KT 17/01 A301 RMK A01 T01700012  RH  035%=      5-min Rain = 0
KLO1 171940Z 02010KT 17/01 A3009 RMK A01 T01700014  RH  035%=      5-min Rain = 0
KLO1 171941Z 01013KT 17/02 A3009 RMK A01 T01730016  RH  035%=      5-min Rain = 0
KLO1 171942Z 00012KT 17/01 A3009 RMK A01 T01720013  RH  034%=      5-min Rain = 0
KLO1 171943Z 00011KT 17/01 A301 RMK A01 T01700013  RH  035%=      5-min Rain = 0
KLO1 171944Z 00013G18KT 17/01 A301 RMK A01 T01690013  RH  035%=      5-min Rain = 0
KLO1 171945Z 01015KT 17/01 A301 RMK A01 T01690012  RH  035%=      5-min Rain = 0
KLO1 171946Z 00016KT 17/01 A301 RMK A01 T01690013  RH  035%=      5-min Rain = 0
KLO1 171947Z 35014KT 17/01 A301 RMK A01 T01680011  RH  035%=      5-min Rain = 0
KLO1 171948Z 35013KT 17/01 A301 RMK A01 T01680013  RH  035%=      5-min Rain = 0
KLO1 171949Z 35011KT 17/01 A3009 RMK A01 T01680013  RH  035%=      5-min Rain = 0
KLO1 171950Z 00010KT 17/01 A3009 RMK A01 T01690013  RH  035%=      5-min Rain = 0
KLO1 171951Z 00010KT 17/01 A3009 RMK A01 T01690012  RH  035%=      5-min Rain = 0
KLO1 171952Z 35014KT 17/01 A3009 RMK A01 T01690013  RH  035%=      5-min Rain = 0
KLO1 171953Z 01013KT 17/01 A3009 RMK A01 T01690013  RH  035%=      5-min Rain = 0
KLO1 171954Z 01013KT 17/01 A3009 RMK A01 T01700014  RH  035%=      5-min Rain = 0
KLO1 171955Z 00011KT 17/02 A3009 RMK A01 T01700015  RH  035%=      5-min Rain = 0
KLO1 171956Z 00013KT 17/01 A3009 RMK A01 T01710013  RH  034%=      5-min Rain = 0
KLO1 171957Z 01012KT 17/01 A3009 RMK A01 T01700013  RH  035%=      5-min Rain = 0
KLO1 171958Z 02012KT 17/02 A3009 RMK A01 T01720015  RH  035%=      5-min Rain = 0
KLO1 171959Z 02012KT 17/02 A3009 RMK A01 T01730016  RH  035%=      5-min Rain = 0
KLO1 172000Z 01012KT 18/02 A3009 RMK A01 T01750015  RH  034%=      5-min Rain = 0
KLO1 172001Z 00013KT 18/01 A3009 RMK A01 T01750014  RH  034%=      5-min Rain = 0
KLO1 172002Z 01012KT 17/01 A3009 RMK A01 T01730012  RH  034%=      5-min Rain = 0
KLO1 172003Z 01011KT 17/01 A3009 RMK A01 T01720012  RH  034%=      5-min Rain = 0
KLO1 172004Z 01011KT 17/01 A3009 RMK A01 T01720013  RH  034%=      5-min Rain = 0
KLO1 172005Z 00011KT 17/01 A3009 RMK A01 T01720013  RH  034%=      5-min Rain = 0
KLO1 172006Z 01014KT 17/01 A3009 RMK A01 T01730013  RH  034%=      5-min Rain = 0
KLO1 172007Z 01014KT 17/01 A3009 RMK A01 T01740013  RH  034%=      5-min Rain = 0
KLO1 172008Z 01014KT 17/01 A3009 RMK A01 T01740012  RH  033%=      5-min Rain = 0
KLO1 172009Z 01012G17KT 18/01 A3009 RMK A01 T01750013  RH  033%=      5-min Rain = 0
KLO1 172010Z 03012KT 18/01 A3009 RMK A01 T01750014  RH  034%=      5-min Rain = 0
KLO1 172011Z 02013KT 18/02 A3009 RMK A01 T01780016  RH  034%=      5-min Rain = 0
KLO1 172012Z 02013KT 18/01 A3009 RMK A01 T01780014  RH  033%=      5-min Rain = 0
KLO1 172013Z 02015KT 18/01 A3009 RMK A01 T01770014  RH  033%=      5-min Rain = 0
KLO1 172014Z 02013KT 18/01 A3009 RMK A01 T01760013  RH  033%=      5-min Rain = 0
KLO1 172015Z 02013KT 18/01 A3009 RMK A01 T01760013  RH  033%=      5-min Rain = 0
KLO1 172016Z 01012KT 18/01 A3009 RMK A01 T01750012  RH  033%=      5-min Rain = 0
KLO1 172017Z 01014KT 18/01 A3009 RMK A01 T01760012  RH  033%=      5-min Rain = 0
KLO1 172018Z 00012KT 18/01 A3009 RMK A01 T01750012  RH  033%=      5-min Rain = 0
KLO1 172019Z 01011KT 17/01 A3009 RMK A01 T01730011  RH  033%=      5-min Rain = 0
KLO1 172020Z 35012KT 17/01 A3009 RMK A01 T01720012  RH  034%=      5-min Rain = 0
KLO1 172021Z 00010KT 17/01 A3008 RMK A01 T01720013  RH  034%=      5-min Rain = 0
KLO1 172022Z 01013KT 17/01 A3009 RMK A01 T01730013  RH  034%=      5-min Rain = 0
KLO1 172023Z 36012G17KT 17/01 A3008 RMK A01 T01730013  RH  034%=      5-min Rain = 0
KLO1 172024Z 36012KT 17/01 A3008 RMK A01 T01720012  RH  034%=      5-min Rain = 0
KLO1 172025Z 35011KT 17/01 A3008 RMK A01 T01720012  RH  034%=      5-min Rain = 0
KLO1 172026Z 00014G19KT 17/01 A3008 RMK A01 T01720012  RH  034%=      5-min Rain = 0
KLO1 172027Z 02014KT 17/01 A3009 RMK A01 T01730013  RH  034%=      5-min Rain = 0
KLO1 172028Z 01015KT 17/01 A3009 RMK A01 T01740013  RH  034%=      5-min Rain = 0
KLO1 172029Z 02014KT 17/01 A3009 RMK A01 T01740012  RH  033%=      5-min Rain = 0
KLO1 172030Z 01016KT 17/01 A3009 RMK A01 T01740012  RH  034%=      5-min Rain = 0
KLO1 172031Z 01012KT 17/01 A3009 RMK A01 T01730011  RH  033%=      5-min Rain = 0
KLO1 172032Z 01013KT 17/01 A3009 RMK A01 T01730011  RH  034%=      5-min Rain = 0
KLO1 172033Z 01014KT 17/01 A3009 RMK A01 T01730012  RH  034%=      5-min Rain = 0
KLO1 172034Z 01013KT 17/01 A3009 RMK A01 T01720011  RH  034%=      5-min Rain = 0
KLO1 172035Z 02011KT 17/01 A3009 RMK A01 T01730012  RH  034%=      5-min Rain = 0
KLO1 172036Z 02012KT 17/01 A3009 RMK A01 T01740013  RH  034%=      5-min Rain = 0
KLO1 172037Z 02010KT 18/01 A3009 RMK A01 T01750012  RH  033%=      5-min Rain = 0
KLO1 172038Z 01009KT 18/01 A3009 RMK A01 T01750014  RH  034%=      5-min Rain = 0
KLO1 172039Z 01012KT 18/01 A3009 RMK A01 T01760013  RH  033%=      5-min Rain = 0
KLO1 172040Z 02013KT 18/01 A3008 RMK A01 T01760014  RH  034%=      5-min Rain = 0
KLO1 172041Z 02012KT 18/01 A3008 RMK A01 T01760014  RH  034%=      5-min Rain = 0
KLO1 172042Z 02012KT 18/02 A3008 RMK A01 T01760015  RH  034%=      5-min Rain = 0
KLO1 172043Z 02011KT 18/02 A3008 RMK A01 T01760015  RH  034%=      5-min Rain = 0
KLO1 172044Z 01010KT 18/02 A3008 RMK A01 T01760016  RH  034%=      5-min Rain = 0
KLO1 172045Z 02012KT 18/02 A3008 RMK A01 T01790015  RH  033%=      5-min Rain = 0
KLO1 172046Z 01015KT 18/01 A3008 RMK A01 T01800014  RH  033%=      5-min Rain = 0
KLO1 172047Z 01015KT 18/01 A3008 RMK A01 T01800012  RH  032%=      5-min Rain = 0
KLO1 172048Z 02013KT 18/01 A3008 RMK A01 T01780011  RH  032%=      5-min Rain = 0
KLO1 172049Z 01013KT 18/01 A3008 RMK A01 T01780012  RH  033%=      5-min Rain = 0
KLO1 172050Z 01013KT 18/01 A3008 RMK A01 T01780013  RH  033%=      5-min Rain = 0
KLO1 172051Z 02014KT 18/01 A3008 RMK A01 T01780011  RH  032%=      5-min Rain = 0
KLO1 172052Z 02012KT 18/01 A3008 RMK A01 T01760010  RH  033%=      5-min Rain = 0
KLO1 172053Z 02013KT 18/01 A3008 RMK A01 T01750011  RH  033%=      5-min Rain = 0
KLO1 172054Z 02015KT 18/01 A3008 RMK A01 T01750011  RH  033%=      5-min Rain = 0
KLO1 172055Z 02012KT 18/01 A3008 RMK A01 T01750011  RH  033%=      5-min Rain = 0
KLO1 172056Z 00010KT 18/01 A3008 RMK A01 T01760013  RH  033%=      5-min Rain = 0
KLO1 172057Z 01011G17KT 18/02 A3008 RMK A01 T01780015  RH  033%=      5-min Rain = 0
KLO1 172058Z 01012KT 18/01 A3008 RMK A01 T01790013  RH  033%=      5-min Rain = 0
KLO1 172059Z 01013KT 18/01 A3008 RMK A01 T01790013  RH  033%=      5-min Rain = 0
KLO1 172100Z 02013KT 18/01 A3008 RMK A01 T01790014  RH  033%=      5-min Rain = 0
KLO1 172101Z 01011KT 18/01 A3008 RMK A01 T01780013  RH  033%=      5-min Rain = 0
KLO1 172102Z 02011KT 18/01 A3008 RMK A01 T01780014  RH  033%=      5-min Rain = 0
KLO1 172103Z 02012KT 18/01 A3008 RMK A01 T01780013  RH  033%=      5-min Rain = 0
KLO1 172104Z 01012KT 18/01 A3008 RMK A01 T01760012  RH  033%=      5-min Rain = 0
KLO1 172105Z 02009KT 17/01 A3008 RMK A01 T01740012  RH  033%=      5-min Rain = 0
KLO1 172106Z 01010KT 17/01 A3008 RMK A01 T01730013  RH  034%=      5-min Rain = 0
KLO1 172107Z 00010KT 17/01 A3008 RMK A01 T01720014  RH  034%=      5-min Rain = 0
KLO1 172108Z 00012KT 17/01 A3008 RMK A01 T01730013  RH  034%=      5-min Rain = 0
KLO1 172109Z 01011KT 17/01 A3008 RMK A01 T01730013  RH  034%=      5-min Rain = 0
KLO1 172110Z 01009KT 17/01 A3008 RMK A01 T01730014  RH  034%=      5-min Rain = 0
KLO1 172111Z 36010KT 17/01 A3008 RMK A01 T01730013  RH  034%=      5-min Rain = 0
KLO1 172112Z 00010KT 17/01 A3008 RMK A01 T01730012  RH  034%=      5-min Rain = 0
KLO1 172113Z 00011KT 17/01 A3008 RMK A01 T01730012  RH  034%=      5-min Rain = 0
KLO1 172114Z 01011KT 17/01 A3008 RMK A01 T01710012  RH  034%=      5-min Rain = 0
KLO1 172115Z 01010KT 17/01 A3008 RMK A01 T01710012  RH  034%=      5-min Rain = 0
KLO1 172116Z 36008KT 17/01 A3008 RMK A01 T01710012  RH  034%=      5-min Rain = 0
KLO1 172117Z 35012KT 17/01 A3008 RMK A01 T01720012  RH  034%=      5-min Rain = 0
KLO1 172118Z 00011KT 17/01 A3008 RMK A01 T01730013  RH  034%=      5-min Rain = 0
KLO1 172119Z 36009KT 17/01 A3008 RMK A01 T01730014  RH  034%=      5-min Rain = 0
KLO1 172120Z 00008KT 17/01 A3008 RMK A01 T01740014  RH  034%=      5-min Rain = 0
KLO1 172121Z 00010KT 18/01 A3008 RMK A01 T01750014  RH  034%=      5-min Rain = 0
KLO1 172122Z 01010KT 18/01 A3008 RMK A01 T01750013  RH  034%=      5-min Rain = 0
KLO1 172123Z 02010KT 18/01 A3008 RMK A01 T01750013  RH  034%=      5-min Rain = 0
KLO1 172124Z 01011KT 18/01 A3008 RMK A01 T01760014  RH  034%=      5-min Rain = 0
KLO1 172125Z 01010KT 18/02 A3008 RMK A01 T01770015  RH  034%=      5-min Rain = 0
KLO1 172126Z 00009KT 18/01 A3008 RMK A01 T01770014  RH  033%=      5-min Rain = 0
KLO1 172127Z 00010KT 18/01 A3008 RMK A01 T01780014  RH  033%=      5-min Rain = 0
KLO1 172128Z 00013KT 18/01 A3008 RMK A01 T01780013  RH  033%=      5-min Rain = 0
KLO1 172129Z 01011KT 18/01 A3008 RMK A01 T01770012  RH  033%=      5-min Rain = 0
KLO1 172130Z 01011KT 18/01 A3008 RMK A01 T01760013  RH  033%=      5-min Rain = 0
KLO1 172131Z 00011KT 18/01 A3008 RMK A01 T01760013  RH  033%=      5-min Rain = 0
KLO1 172132Z 00011KT 18/01 A3008 RMK A01 T01760013  RH  033%=      5-min Rain = 0
KLO1 172133Z 35010KT 18/01 A3008 RMK A01 T01760013  RH  033%=      5-min Rain = 0
KLO1 172134Z 01011KT 18/01 A3008 RMK A01 T01770013  RH  033%=      5-min Rain = 0
KLO1 172135Z 01011KT 18/01 A3008 RMK A01 T01770013  RH  033%=      5-min Rain = 0
KLO1 172136Z 03012KT 18/01 A3008 RMK A01 T01770012  RH  033%=      5-min Rain = 0
KLO1 172137Z 02013KT 18/01 A3008 RMK A01 T01780013  RH  033%=      5-min Rain = 0
KLO1 172138Z 03010KT 18/01 A3008 RMK A01 T01790012  RH  033%=      5-min Rain = 0
KLO1 172139Z 02009KT 18/01 A3008 RMK A01 T01760011  RH  033%=      5-min Rain = 0
KLO1 172140Z 02012KT 18/01 A3008 RMK A01 T01750012  RH  033%=      5-min Rain = 0
KLO1 172141Z 01011KT 18/01 A3008 RMK A01 T01750013  RH  034%=      5-min Rain = 0
KLO1 172142Z 00012KT 18/01 A3008 RMK A01 T01760012  RH  033%=      5-min Rain = 0
KLO1 172143Z 01013KT 18/01 A3008 RMK A01 T01750012  RH  033%=      5-min Rain = 0
KLO1 172144Z 36011KT 18/01 A3008 RMK A01 T01750013  RH  034%=      5-min Rain = 0
KLO1 172145Z 01010KT 18/01 A3008 RMK A01 T01750013  RH  034%=      5-min Rain = 0
KLO1 172146Z 01010KT 18/01 A3008 RMK A01 T01770014  RH  033%=      5-min Rain = 0
KLO1 172147Z 01009KT 18/01 A3008 RMK A01 T01770014  RH  033%=      5-min Rain = 0
KLO1 172148Z 35011KT 18/02 A3008 RMK A01 T01780015  RH  033%=      5-min Rain = 0
KLO1 172149Z 36010KT 18/01 A3008 RMK A01 T01780014  RH  033%=      5-min Rain = 0
KLO1 172150Z 35009KT 18/02 A3008 RMK A01 T01790015  RH  033%=      5-min Rain = 0
KLO1 172151Z 01012KT 18/01 A3008 RMK A01 T01800014  RH  033%=      5-min Rain = 0
KLO1 172152Z 01013KT 18/02 A3008 RMK A01 T01800015  RH  033%=      5-min Rain = 0
KLO1 172153Z 01013KT 18/02 A3008 RMK A01 T01810015  RH  033%=      5-min Rain = 0
KLO1 172154Z 02014KT 18/02 A3008 RMK A01 T01810015  RH  033%=      5-min Rain = 0
KLO1 172155Z 03013KT 18/02 A3008 RMK A01 T01820016  RH  033%=      5-min Rain = 0
KLO1 172156Z 02012KT 18/02 A3008 RMK A01 T01810015  RH  033%=      5-min Rain = 0
KLO1 172157Z 02012KT 18/02 A3008 RMK A01 T01800015  RH  033%=      5-min Rain = 0
KLO1 172158Z 01009KT 18/01 A3008 RMK A01 T01780014  RH  033%=      5-min Rain = 0
KLO1 172159Z 01008KT 18/01 A3008 RMK A01 T01780014  RH  033%=      5-min Rain = 0
KLO1 172200Z 01013KT 18/02 A3008 RMK A01 T01780015  RH  033%=      5-min Rain = 0
KLO1 172201Z 01014KT 18/01 A3008 RMK A01 T01770014  RH  033%=      5-min Rain = 0
KLO1 172202Z 02012KT 18/01 A3008 RMK A01 T01770013  RH  033%=      5-min Rain = 0
KLO1 172203Z 01013KT 18/01 A3008 RMK A01 T01780014  RH  033%=      5-min Rain = 0
KLO1 172204Z 01009KT 18/01 A3008 RMK A01 T01780013  RH  033%=      5-min Rain = 0
KLO1 172205Z 03011KT 18/01 A3008 RMK A01 T01790014  RH  033%=      5-min Rain = 0
KLO1 172206Z 02012KT 18/01 A3008 RMK A01 T01800014  RH  033%=      5-min Rain = 0
KLO1 172207Z 01012KT 18/01 A3008 RMK A01 T01790014  RH  033%=      5-min Rain = 0
KLO1 172208Z 01011KT 18/02 A3008 RMK A01 T01790015  RH  033%=      5-min Rain = 0
KLO1 172209Z 02012KT 18/01 A3008 RMK A01 T01780013  RH  033%=      5-min Rain = 0
KLO1 172210Z 02012KT 18/01 A3008 RMK A01 T01780014  RH  033%=      5-min Rain = 0
KLO1 172211Z 02010KT 18/01 A3008 RMK A01 T01780013  RH  033%=      5-min Rain = 0
KLO1 172212Z 02011KT 18/01 A3008 RMK A01 T01780013  RH  033%=      5-min Rain = 0
KLO1 172213Z 01009KT 18/01 A3008 RMK A01 T01790014  RH  033%=      5-min Rain = 0
KLO1 172214Z 01010KT 18/02 A3008 RMK A01 T01790015  RH  033%=      5-min Rain = 0
KLO1 172215Z 00010KT 18/02 A3008 RMK A01 T01800015  RH  033%=      5-min Rain = 0
KLO1 172216Z 01011KT 18/01 A3008 RMK A01 T01790013  RH  033%=      5-min Rain = 0
KLO1 172217Z 02012KT 18/01 A3008 RMK A01 T01780014  RH  033%=      5-min Rain = 0
KLO1 172218Z 02013KT 18/01 A3008 RMK A01 T01770013  RH  033%=      5-min Rain = 0
KLO1 172219Z 02011KT 18/01 A3008 RMK A01 T01750013  RH  034%=      5-min Rain = 0
KLO1 172220Z 03011KT 18/01 A3008 RMK A01 T01750014  RH  034%=      5-min Rain = 0
KLO1 172221Z 03009KT 17/01 A3008 RMK A01 T01740013  RH  034%=      5-min Rain = 0
KLO1 172222Z 02007KT 18/01 A3008 RMK A01 T01750013  RH  034%=      5-min Rain = 0
KLO1 172223Z 02008KT 18/02 A3009 RMK A01 T01760015  RH  034%=      5-min Rain = 0
KLO1 172224Z 01010KT 18/02 A3009 RMK A01 T01760016  RH  034%=      5-min Rain = 0
KLO1 172225Z 02010KT 18/02 A3009 RMK A01 T01770015  RH  034%=      5-min Rain = 0
KLO1 172226Z 01009KT 18/02 A3008 RMK A01 T01770015  RH  034%=      5-min Rain = 0
KLO1 172227Z 00010KT 18/02 A3008 RMK A01 T01770015  RH  034%=      5-min Rain = 0
KLO1 172228Z 01010KT 18/02 A3008 RMK A01 T01770015  RH  034%=      5-min Rain = 0
KLO1 172229Z 01009KT 18/02 A3008 RMK A01 T01770015  RH  034%=      5-min Rain = 0
KLO1 172230Z 01010KT 18/02 A3008 RMK A01 T01760015  RH  034%=      5-min Rain = 0
KLO1 172231Z 01011KT 18/02 A3008 RMK A01 T01760015  RH  034%=      5-min Rain = 0
KLO1 172232Z 01010KT 18/02 A3008 RMK A01 T01750015  RH  034%=      5-min Rain = 0
KLO1 172233Z 00009KT 18/02 A3008 RMK A01 T01750015  RH  034%=      5-min Rain = 0
KLO1 172234Z 01007KT 17/01 A3008 RMK A01 T01740013  RH  034%=      5-min Rain = 0
KLO1 172235Z 01008KT 17/01 A3008 RMK A01 T01740014  RH  034%=      5-min Rain = 0
KLO1 172236Z 36006KT 17/01 A3008 RMK A01 T01740014  RH  034%=      5-min Rain = 0
KLO1 172237Z 00007KT 18/01 A3008 RMK A01 T01750013  RH  034%=      5-min Rain = 0
KLO1 172238Z 02008KT 18/01 A3008 RMK A01 T01750014  RH  034%=      5-min Rain = 0
KLO1 172239Z 01008KT 18/02 A3008 RMK A01 T01760015  RH  034%=      5-min Rain = 0
KLO1 172240Z 01009KT 18/01 A3008 RMK A01 T01760014  RH  034%=      5-min Rain = 0
KLO1 172241Z 00008KT 18/01 A3008 RMK A01 T01750013  RH  034%=      5-min Rain = 0
KLO1 172242Z 01007KT 18/01 A3008 RMK A01 T01750014  RH  034%=      5-min Rain = 0
KLO1 172243Z 01007KT 18/02 A3008 RMK A01 T01750015  RH  034%=      5-min Rain = 0
KLO1 172244Z 00008KT 17/01 A3008 RMK A01 T01740014  RH  034%=      5-min Rain = 0
KLO1 172245Z 35007KT 17/01 A3008 RMK A01 T01730014  RH  034%=      5-min Rain = 0
KLO1 172246Z 35006KT 17/02 A3008 RMK A01 T01720015  RH  035%=      5-min Rain = 0
KLO1 172247Z 35006KT 17/01 A3008 RMK A01 T01720014  RH  034%=      5-min Rain = 0
KLO1 172248Z 35007KT 17/02 A3008 RMK A01 T01720015  RH  035%=      5-min Rain = 0
KLO1 172249Z 01007KT 17/02 A3008 RMK A01 T01730016  RH  035%=      5-min Rain = 0
KLO1 172250Z 01007KT 17/02 A3008 RMK A01 T01730016  RH  035%=      5-min Rain = 0
KLO1 172251Z 01007KT 17/02 A3008 RMK A01 T01730016  RH  035%=      5-min Rain = 0
KLO1 172252Z 01008KT 17/02 A3008 RMK A01 T01730016  RH  035%=      5-min Rain = 0
KLO1 172253Z 01008KT 17/02 A3008 RMK A01 T01720015  RH  035%=      5-min Rain = 0
KLO1 172254Z 02007KT 17/02 A3008 RMK A01 T01710015  RH  035%=      5-min Rain = 0
KLO1 172255Z 02006KT 17/02 A3008 RMK A01 T01710016  RH  035%=      5-min Rain = 0
KLO1 172256Z 01005KT 17/02 A3008 RMK A01 T01710017  RH  035%=      5-min Rain = 0
KLO1 172257Z 35005KT 17/02 A3008 RMK A01 T01720018  RH  035%=      5-min Rain = 0
KLO1 172258Z 35006KT 17/02 A3008 RMK A01 T01720016  RH  035%=      5-min Rain = 0
KLO1 172259Z 35006KT 17/02 A3008 RMK A01 T01720016  RH  035%=      5-min Rain = 0
KLO1 172300Z 35006KT 17/02 A3008 RMK A01 T01720015  RH  035%=      5-min Rain = 0
KLO1 172301Z 35007KT 17/02 A3008 RMK A01 T01720015  RH  035%=      5-min Rain = 0
KLO1 172302Z 35007KT 17/02 A3009 RMK A01 T01720015  RH  035%=      5-min Rain = 0
KLO1 172303Z 35006KT 17/02 A3009 RMK A01 T01730016  RH  035%=      5-min Rain = 0
KLO1 172304Z 34006KT 17/02 A3009 RMK A01 T01730016  RH  035%=      5-min Rain = 0
KLO1 172305Z 35007KT 17/02 A3009 RMK A01 T01720016  RH  035%=      5-min Rain = 0
KLO1 172306Z 35008KT 17/02 A3009 RMK A01 T01720016  RH  035%=      5-min Rain = 0
KLO1 172307Z 35007KT 17/02 A3008 RMK A01 T01710015  RH  035%=      5-min Rain = 0
KLO1 172308Z 36005KT 17/02 A3008 RMK A01 T01700015  RH  035%=      5-min Rain = 0
KLO1 172309Z 35007KT 17/02 A3008 RMK A01 T01700016  RH  035%=      5-min Rain = 0
KLO1 172310Z 35007KT 17/02 A3008 RMK A01 T01700015  RH  035%=      5-min Rain = 0
KLO1 172311Z 34007KT 17/02 A3008 RMK A01 T01690016  RH  036%=      5-min Rain = 0
KLO1 172312Z 34007KT 17/02 A3008 RMK A01 T01690016  RH  036%=      5-min Rain = 0
KLO1 172313Z 35006KT 17/02 A3008 RMK A01 T01690016  RH  036%=      5-min Rain = 0
KLO1 172314Z 34006KT 17/02 A3008 RMK A01 T01680016  RH  036%=      5-min Rain = 0
KLO1 172315Z 34006KT 17/02 A3008 RMK A01 T01680017  RH  036%=      5-min Rain = 0
KLO1 172316Z 34007KT 17/02 A3008 RMK A01 T01670016  RH  036%=      5-min Rain = 0
KLO1 172317Z 34007KT 17/02 A3008 RMK A01 T01670016  RH  036%=      5-min Rain = 0
KLO1 172318Z 34006KT 17/02 A3008 RMK A01 T01660016  RH  036%=      5-min Rain = 0
KLO1 172319Z 34007KT 17/02 A3008 RMK A01 T01650016  RH  037%=      5-min Rain = 0
KLO1 172320Z 34006KT 17/02 A3008 RMK A01 T01650016  RH  037%=      5-min Rain = 0
KLO1 172321Z 35006KT 16/02 A3008 RMK A01 T01640016  RH  037%=      5-min Rain = 0
KLO1 172322Z 35006KT 16/02 A3008 RMK A01 T01630015  RH  037%=      5-min Rain = 0
KLO1 172323Z 35006KT 16/02 A3008 RMK A01 T01630016  RH  037%=      5-min Rain = 0
KLO1 172324Z 36006KT 16/02 A3008 RMK A01 T01620016  RH  037%=      5-min Rain = 0
KLO1 172325Z 01006KT 16/02 A3008 RMK A01 T01610015  RH  037%=      5-min Rain = 0
KLO1 172326Z 02007KT 16/02 A3008 RMK A01 T01610016  RH  037%=      5-min Rain = 0
KLO1 172327Z 01006KT 16/02 A3008 RMK A01 T01600016  RH  038%=      5-min Rain = 0
KLO1 172328Z 02006KT 16/02 A3008 RMK A01 T01580016  RH  038%=      5-min Rain = 0
KLO1 172329Z 02006KT 16/02 A3008 RMK A01 T01560017  RH  039%=      5-min Rain = 0
KLO1 172330Z 01006KT 15/02 A3008 RMK A01 T01540018  RH  040%=      5-min Rain = 0
KLO1 172331Z 01006KT 15/02 A3008 RMK A01 T01520017  RH  040%=      5-min Rain = 0
KLO1 172332Z 01007KT 15/02 A3008 RMK A01 T01510017  RH  040%=      5-min Rain = 0
KLO1 172333Z 01006KT 15/02 A3008 RMK A01 T01500018  RH  041%=      5-min Rain = 0
KLO1 172334Z 01007KT 15/02 A3008 RMK A01 T01500018  RH  041%=      5-min Rain = 0
KLO1 172335Z 01008KT 15/02 A3008 RMK A01 T01500018  RH  041%=      5-min Rain = 0
KLO1 172336Z 01007KT 15/02 A3008 RMK A01 T01490018  RH  041%=      5-min Rain = 0
KLO1 172337Z 01007KT 15/02 A3008 RMK A01 T01480017  RH  041%=      5-min Rain = 0
KLO1 172338Z 01007KT 15/02 A3008 RMK A01 T01480018  RH  041%=      5-min Rain = 0
KLO1 172339Z 00007KT 15/02 A3008 RMK A01 T01470018  RH  042%=      5-min Rain = 0
KLO1 172340Z 00007KT 15/02 A3008 RMK A01 T01460018  RH  042%=      5-min Rain = 0
KLO1 172341Z 00006KT 15/02 A3008 RMK A01 T01450018  RH  042%=      5-min Rain = 0
KLO1 172342Z 00007KT 15/02 A3008 RMK A01 T01450018  RH  042%=      5-min Rain = 0
KLO1 172343Z 01007KT 15/02 A3008 RMK A01 T01470018  RH  041%=      5-min Rain = 0
KLO1 172344Z 01006KT 15/02 A3008 RMK A01 T01500018  RH  041%=      5-min Rain = 0
KLO1 172345Z 00006KT 15/02 A3008 RMK A01 T01500018  RH  041%=      5-min Rain = 0
KLO1 172346Z 01007KT 15/02 A3008 RMK A01 T01470018  RH  041%=      5-min Rain = 0
KLO1 172347Z 01007KT 15/02 A3009 RMK A01 T01450017  RH  042%=      5-min Rain = 0
KLO1 172348Z 01006KT 14/02 A3009 RMK A01 T01420018  RH  043%=      5-min Rain = 0
KLO1 172349Z 00005KT 14/02 A3009 RMK A01 T01410018  RH  043%=      5-min Rain = 0
KLO1 172350Z 00005KT 14/02 A3009 RMK A01 T01400018  RH  044%=      5-min Rain = 0
KLO1 172351Z 36004KT 14/02 A3009 RMK A01 T01410018  RH  043%=      5-min Rain = 0
KLO1 172352Z 36004KT 14/02 A3009 RMK A01 T01430019  RH  043%=      5-min Rain = 0
KLO1 172353Z 36005KT 15/02 A3009 RMK A01 T01450019  RH  042%=      5-min Rain = 0
KLO1 172354Z 36004KT 15/02 A3009 RMK A01 T01460018  RH  042%=      5-min Rain = 0
KLO1 172355Z 00004KT 15/02 A3009 RMK A01 T01460018  RH  042%=      5-min Rain = 0
KLO1 172356Z 00004KT 15/02 A3009 RMK A01 T01460018  RH  042%=      5-min Rain = 0
KLO1 172357Z 01004KT 15/02 A3009 RMK A01 T01460018  RH  042%=      5-min Rain = 0
KLO1 172358Z 00004KT 15/02 A3009 RMK A01 T01450018  RH  042%=      5-min Rain = 0
KLO1 172359Z 01004KT 14/02 A3009 RMK A01 T01440018  RH  042%=      5-min Rain = 0
KLO1 180000Z 36004KT 14/02 A3009 RMK A01 T01430018  RH  043%=      5-min Rain = 0
KLO1 180001Z 36004KT 14/02 A3009 RMK A01 T01430018  RH  043%=      5-min Rain = 0
KLO1 180002Z 36003KT 14/02 A3009 RMK A01 T01430018  RH  043%=      5-min Rain = 0
KLO1 180003Z 36003KT 14/02 A301 RMK A01 T01430018  RH  043%=      5-min Rain = 0
KLO1 180004Z 36004KT 14/02 A301 RMK A01 T01430018  RH  043%=      5-min Rain = 0
KLO1 180005Z 36003KT 14/02 A301 RMK A01 T01420018  RH  043%=      5-min Rain = 0
KLO1 180006Z 36003KT 14/02 A301 RMK A01 T01410018  RH  043%=      5-min Rain = 0
KLO1 180007Z 00003KT 14/02 A301 RMK A01 T01400017  RH  043%=      5-min Rain = 0
KLO1 180008Z 00003KT 14/02 A301 RMK A01 T01390017  RH  044%=      5-min Rain = 0
KLO1 180009Z 01002KT 14/02 A301 RMK A01 T01380017  RH  044%=      5-min Rain = 0
KLO1 180010Z 01002KT 14/02 A301 RMK A01 T01370018  RH  044%=      5-min Rain = 0
KLO1 180011Z 01002KT 14/02 A3009 RMK A01 T01360018  RH  045%=      5-min Rain = 0
KLO1 180012Z 01004KT 14/02 A3009 RMK A01 T01350018  RH  045%=      5-min Rain = 0
KLO1 180013Z 01003KT 13/02 A3009 RMK A01 T01340018  RH  045%=      5-min Rain = 0
KLO1 180014Z 02003KT 13/02 A3009 RMK A01 T01340017  RH  045%=      5-min Rain = 0
KLO1 180015Z 02003KT 13/02 A3009 RMK A01 T01340017  RH  045%=      5-min Rain = 0
KLO1 180016Z 03003KT 13/02 A3009 RMK A01 T01330017  RH  045%=      5-min Rain = 0
KLO1 180017Z 04003KT 13/02 A301 RMK A01 T01320017  RH  046%=      5-min Rain = 0
KLO1 180018Z 04002KT 13/02 A301 RMK A01 T01310017  RH  046%=      5-min Rain = 0
KLO1 180019Z 04002KT 13/02 A301 RMK A01 T01310018  RH  046%=      5-min Rain = 0
KLO1 180020Z 05002KT 13/02 A301 RMK A01 T01310018  RH  046%=      5-min Rain = 0
KLO1 180021Z 04002KT 13/02 A301 RMK A01 T01320018  RH  046%=      5-min Rain = 0
KLO1 180022Z 03002KT 13/02 A301 RMK A01 T01310018  RH  046%=      5-min Rain = 0
KLO1 180023Z 03002KT 13/02 A301 RMK A01 T01320018  RH  046%=      5-min Rain = 0
KLO1 180024Z 03002KT 13/02 A301 RMK A01 T01310017  RH  046%=      5-min Rain = 0
KLO1 180025Z 03002KT 13/02 A301 RMK A01 T01310017  RH  046%=      5-min Rain = 0
KLO1 180026Z 03002KT 13/02 A301 RMK A01 T01310017  RH  046%=      5-min Rain = 0
KLO1 180027Z 03002KT 13/02 A301 RMK A01 T01310018  RH  046%=      5-min Rain = 0
KLO1 180028Z 04002KT 13/02 A301 RMK A01 T01300017  RH  046%=      5-min Rain = 0
KLO1 180029Z 05002KT 13/02 A301 RMK A01 T01290019  RH  047%=      5-min Rain = 0
KLO1 180030Z 06001KT 13/02 A301 RMK A01 T01280019  RH  047%=      5-min Rain = 0
KLO1 180031Z 11000KT 13/02 A301 RMK A01 T01250018  RH  048%=      5-min Rain = 0
KLO1 180032Z 00000KT 12/02 A301 RMK A01 T01210017  RH  049%=      5-min Rain = 0
KLO1 180033Z 00000KT 12/02 A301 RMK A01 T01180018  RH  050%=      5-min Rain = 0
KLO1 180034Z 06000KT 12/02 A301 RMK A01 T01160019  RH  051%=      5-min Rain = 0
KLO1 180035Z 09000KT 11/02 A301 RMK A01 T01140019  RH  052%=      5-min Rain = 0
KLO1 180036Z 07000KT 11/02 A301 RMK A01 T01120019  RH  053%=      5-min Rain = 0
KLO1 180037Z 00000KT 11/02 A301 RMK A01 T01110019  RH  053%=      5-min Rain = 0
KLO1 180038Z 00000KT 11/02 A301 RMK A01 T01100020  RH  054%=      5-min Rain = 0
KLO1 180039Z 00000KT 11/02 A3011 RMK A01 T01100020  RH  054%=      5-min Rain = 0
KLO1 180040Z 00000KT 11/02 A3011 RMK A01 T01090021  RH  054%=      5-min Rain = 0
KLO1 180041Z 00000KT 11/02 A3011 RMK A01 T01090020  RH  054%=      5-min Rain = 0
KLO1 180042Z 06000KT 11/02 A3011 RMK A01 T01090021  RH  054%=      5-min Rain = 0
KLO1 180043Z 06001KT 11/02 A3011 RMK A01 T01100021  RH  054%=      5-min Rain = 0
KLO1 180044Z 06001KT 11/02 A3011 RMK A01 T01120020  RH  053%=      5-min Rain = 0
KLO1 180045Z 05001KT 11/02 A3011 RMK A01 T01130020  RH  053%=      5-min Rain = 0
KLO1 180046Z 05001KT 11/02 A3011 RMK A01 T01140019  RH  052%=      5-min Rain = 0
KLO1 180047Z 05001KT 12/02 A3011 RMK A01 T01150019  RH  052%=      5-min Rain = 0
KLO1 180048Z 05002KT 12/02 A3011 RMK A01 T01150019  RH  052%=      5-min Rain = 0
KLO1 180049Z 05001KT 12/02 A3011 RMK A01 T01150019  RH  052%=      5-min Rain = 0
KLO1 180050Z 05001KT 11/02 A3011 RMK A01 T01140019  RH  052%=      5-min Rain = 0
KLO1 180051Z 06001KT 11/02 A3011 RMK A01 T01140020  RH  052%=      5-min Rain = 0
KLO1 180052Z 06000KT 11/02 A3011 RMK A01 T01130020  RH  053%=      5-min Rain = 0
KLO1 180053Z 07000KT 11/02 A3011 RMK A01 T01110020  RH  053%=      5-min Rain = 0
KLO1 180054Z 07000KT 11/02 A3011 RMK A01 T01100020  RH  054%=      5-min Rain = 0
KLO1 180055Z 07000KT 11/02 A3011 RMK A01 T01080020  RH  054%=      5-min Rain = 0
KLO1 180056Z 07001KT 11/02 A3011 RMK A01 T01070021  RH  055%=      5-min Rain = 0
KLO1 180057Z 07001KT 11/02 A3011 RMK A01 T01060021  RH  055%=      5-min Rain = 0
KLO1 180058Z 08001KT 11/02 A3011 RMK A01 T01050020  RH  056%=      5-min Rain = 0
KLO1 180059Z 09000KT 10/02 A3011 RMK A01 T01040020  RH  056%=      5-min Rain = 0
KLO1 180100Z 00000KT 10/02 A3011 RMK A01 T01020020  RH  057%=      5-min Rain = 0
KLO1 180101Z 00000KT 10/02 A3011 RMK A01 T01010020  RH  057%=      5-min Rain = 0
KLO1 180102Z 00000KT 10/02 A3011 RMK A01 T01000020  RH  058%=      5-min Rain = 0
KLO1 180103Z 00000KT 10/02 A3011 RMK A01 T00990020  RH  058%=      5-min Rain = 0
KLO1 180104Z 12000KT 10/02 A3012 RMK A01 T00980020  RH  058%=      5-min Rain = 0
KLO1 180105Z 13001KT 10/02 A3012 RMK A01 T00970021  RH  059%=      5-min Rain = 0
KLO1 180106Z 13001KT 10/02 A3012 RMK A01 T00960020  RH  059%=      5-min Rain = 0
KLO1 180107Z 12002KT 10/02 A3011 RMK A01 T00960020  RH  059%=      5-min Rain = 0
KLO1 180108Z 12002KT 10/02 A3011 RMK A01 T00950020  RH  060%=      5-min Rain = 0
KLO1 180109Z 12002KT 09/02 A3011 RMK A01 T00940021  RH  060%=      5-min Rain = 0
KLO1 180110Z 12003KT 09/02 A3011 RMK A01 T00930021  RH  061%=      5-min Rain = 0
KLO1 180111Z 13003KT 09/02 A3011 RMK A01 T00920020  RH  060%=      5-min Rain = 0
KLO1 180112Z 13003KT 09/02 A3012 RMK A01 T00930018  RH  059%=      5-min Rain = 0
KLO1 180113Z 13003KT 09/02 A3012 RMK A01 T00920018  RH  060%=      5-min Rain = 0
KLO1 180114Z 13003KT 09/02 A3012 RMK A01 T00900017  RH  060%=      5-min Rain = 0
KLO1 180115Z 13003KT 09/02 A3012 RMK A01 T00890017  RH  060%=      5-min Rain = 0
KLO1 180116Z 13003KT 09/02 A3012 RMK A01 T00880016  RH  061%=      5-min Rain = 0
KLO1 180117Z 13003KT 09/02 A3012 RMK A01 T00870016  RH  061%=      5-min Rain = 0
KLO1 180118Z 13002KT 09/02 A3011 RMK A01 T00870016  RH  061%=      5-min Rain = 0
KLO1 180119Z 14002KT 09/02 A3012 RMK A01 T00850016  RH  062%=      5-min Rain = 0
KLO1 180120Z 15002KT 09/02 A3012 RMK A01 T00850017  RH  062%=      5-min Rain = 0
KLO1 180121Z 16002KT 09/02 A3012 RMK A01 T00850020  RH  064%=      5-min Rain = 0
KLO1 180122Z 17002KT 08/02 A3012 RMK A01 T00840021  RH  064%=      5-min Rain = 0
KLO1 180123Z 17002KT 08/02 A3012 RMK A01 T00840020  RH  064%=      5-min Rain = 0
KLO1 180124Z 17002KT 09/02 A3012 RMK A01 T00850020  RH  064%=      5-min Rain = 0
KLO1 180125Z 16001KT 09/02 A3012 RMK A01 T00860020  RH  063%=      5-min Rain = 0
KLO1 180126Z 16001KT 09/02 A3012 RMK A01 T00860020  RH  063%=      5-min Rain = 0
KLO1 180127Z 17001KT 09/02 A3012 RMK A01 T00850020  RH  064%=      5-min Rain = 0
KLO1 180128Z 16001KT 09/02 A3012 RMK A01 T00850020  RH  064%=      5-min Rain = 0
KLO1 180129Z 16001KT 08/02 A3012 RMK A01 T00840018  RH  063%=      5-min Rain = 0
KLO1 180130Z 16001KT 09/02 A3012 RMK A01 T00850018  RH  063%=      5-min Rain = 0
KLO1 180131Z 15001KT 09/02 A3012 RMK A01 T00850019  RH  063%=      5-min Rain = 0
KLO1 180132Z 15001KT 09/02 A3012 RMK A01 T00850018  RH  063%=      5-min Rain = 0
KLO1 180133Z 15001KT 09/02 A3012 RMK A01 T00850018  RH  063%=      5-min Rain = 0
KLO1 180134Z 14001KT 09/02 A3012 RMK A01 T00850018  RH  063%=      5-min Rain = 0
KLO1 180135Z 14001KT 09/02 A3012 RMK A01 T00850018  RH  063%=      5-min Rain = 0
KLO1 180136Z 14001KT 09/02 A3012 RMK A01 T00850018  RH  063%=      5-min Rain = 0
KLO1 180137Z 14001KT 09/02 A3012 RMK A01 T00850018  RH  063%=      5-min Rain = 0
KLO1 180138Z 14002KT 09/02 A3012 RMK A01 T00850018  RH  063%=      5-min Rain = 0
KLO1 180139Z 14002KT 09/02 A3012 RMK A01 T00860018  RH  062%=      5-min Rain = 0
KLO1 180140Z 14002KT 09/02 A3012 RMK A01 T00870018  RH  062%=      5-min Rain = 0
KLO1 180141Z 15002KT 09/02 A3012 RMK A01 T00880018  RH  062%=      5-min Rain = 0
KLO1 180142Z 15002KT 09/02 A3012 RMK A01 T00880018  RH  061%=      5-min Rain = 0
KLO1 180143Z 16002KT 09/02 A3012 RMK A01 T00880017  RH  061%=      5-min Rain = 0
KLO1 180144Z 16002KT 09/02 A3012 RMK A01 T00880017  RH  061%=      5-min Rain = 0
KLO1 180145Z 16003KT 09/02 A3012 RMK A01 T00880016  RH  060%=      5-min Rain = 0
KLO1 180146Z 17003KT 09/01 A3012 RMK A01 T00870014  RH  060%=      5-min Rain = 0
KLO1 180147Z 17003KT 09/02 A3012 RMK A01 T00860015  RH  061%=      5-min Rain = 0
KLO1 180148Z 18003KT 09/02 A3012 RMK A01 T00860015  RH  061%=      5-min Rain = 0
KLO1 180149Z 18003KT 09/02 A3013 RMK A01 T00860015  RH  061%=      5-min Rain = 0
KLO1 180150Z 18003KT 09/02 A3013 RMK A01 T00850015  RH  061%=      5-min Rain = 0
KLO1 180151Z 17003KT 09/02 A3012 RMK A01 T00850015  RH  061%=      5-min Rain = 0
KLO1 180152Z 16003KT 09/02 A3012 RMK A01 T00850015  RH  062%=      5-min Rain = 0
KLO1 180153Z 15003KT 08/02 A3012 RMK A01 T00840015  RH  062%=      5-min Rain = 0
KLO1 180154Z 15003KT 08/02 A3012 RMK A01 T00840015  RH  062%=      5-min Rain = 0
KLO1 180155Z 14002KT 08/02 A3012 RMK A01 T00830015  RH  062%=      5-min Rain = 0
KLO1 180156Z 14002KT 08/02 A3012 RMK A01 T00820015  RH  063%=      5-min Rain = 0
KLO1 180157Z 14002KT 08/02 A3012 RMK A01 T00820015  RH  063%=      5-min Rain = 0
KLO1 180158Z 13002KT 08/02 A3012 RMK A01 T00810015  RH  063%=      5-min Rain = 0
KLO1 180159Z 12002KT 08/02 A3012 RMK A01 T00810015  RH  063%=      5-min Rain = 0
KLO1 180200Z 11002KT 08/02 A3012 RMK A01 T00800015  RH  064%=      5-min Rain = 0
KLO1 180201Z 11002KT 08/02 A3012 RMK A01 T00790016  RH  064%=      5-min Rain = 0
KLO1 180202Z 11002KT 08/02 A3012 RMK A01 T00790016  RH  064%=      5-min Rain = 0
KLO1 180203Z 11002KT 08/02 A3012 RMK A01 T00790016  RH  065%=      5-min Rain = 0
KLO1 180204Z 12002KT 08/02 A3012 RMK A01 T00790016  RH  064%=      5-min Rain = 0
KLO1 180205Z 13002KT 08/02 A3012 RMK A01 T00780016  RH  065%=      5-min Rain = 0
KLO1 180206Z 13002KT 08/02 A3012 RMK A01 T00780016  RH  065%=      5-min Rain = 0
KLO1 180207Z 15003KT 08/02 A3012 RMK A01 T00780017  RH  065%=      5-min Rain = 0
KLO1 180208Z 17003KT 08/02 A3012 RMK A01 T00780019  RH  066%=      5-min Rain = 0
KLO1 180209Z 18004KT 08/02 A3012 RMK A01 T00790019  RH  066%=      5-min Rain = 0
KLO1 180210Z 19004KT 08/02 A3012 RMK A01 T00780018  RH  066%=      5-min Rain = 0
KLO1 180211Z 20004KT 08/02 A3013 RMK A01 T00760018  RH  067%=      5-min Rain = 0
KLO1 180212Z 20005KT 08/02 A3013 RMK A01 T00750018  RH  067%=      5-min Rain = 0
KLO1 180213Z 19005KT 08/02 A3013 RMK A01 T00750018  RH  067%=      5-min Rain = 0
KLO1 180214Z 19004KT 08/02 A3013 RMK A01 T00750018  RH  067%=      5-min Rain = 0
KLO1 180215Z 19004KT 08/02 A3013 RMK A01 T00750017  RH  067%=      5-min Rain = 0
KLO1 180216Z 18004KT 08/02 A3013 RMK A01 T00750018  RH  067%=      5-min Rain = 0
KLO1 180217Z 18004KT 08/02 A3013 RMK A01 T00750017  RH  067%=      5-min Rain = 0
KLO1 180218Z 18004KT 08/02 A3013 RMK A01 T00750017  RH  067%=      5-min Rain = 0
KLO1 180219Z 19005KT 08/02 A3013 RMK A01 T00750018  RH  067%=      5-min Rain = 0
KLO1 180220Z 20005KT 08/02 A3013 RMK A01 T00750018  RH  067%=      5-min Rain = 0
KLO1 180221Z 21005KT 08/02 A3013 RMK A01 T00750018  RH  067%=      5-min Rain = 0
KLO1 180222Z 21006KT 08/02 A3013 RMK A01 T00750018  RH  067%=      5-min Rain = 0
KLO1 180223Z 20006KT 08/02 A3013 RMK A01 T00750018  RH  067%=      5-min Rain = 0
KLO1 180224Z 20006KT 08/02 A3013 RMK A01 T00750017  RH  066%=      5-min Rain = 0
KLO1 180225Z 20005KT 08/02 A3013 RMK A01 T00750016  RH  066%=      5-min Rain = 0
KLO1 180226Z 19005KT 07/02 A3013 RMK A01 T00740016  RH  066%=      5-min Rain = 0
KLO1 180227Z 19005KT 07/02 A3013 RMK A01 T00740015  RH  066%=      5-min Rain = 0
KLO1 180228Z 19004KT 07/02 A3013 RMK A01 T00740015  RH  066%=      5-min Rain = 0
KLO1 180229Z 19004KT 07/02 A3013 RMK A01 T00740015  RH  066%=      5-min Rain = 0
KLO1 180230Z 19004KT 07/02 A3013 RMK A01 T00740015  RH  066%=      5-min Rain = 0
KLO1 180231Z 18005KT 07/01 A3013 RMK A01 T00740014  RH  066%=      5-min Rain = 0
KLO1 180232Z 18004KT 07/01 A3013 RMK A01 T00740014  RH  066%=      5-min Rain = 0
KLO1 180233Z 18004KT 07/01 A3013 RMK A01 T00740013  RH  065%=      5-min Rain = 0
KLO1 180234Z 18004KT 07/01 A3013 RMK A01 T00730013  RH  065%=      5-min Rain = 0
KLO1 180235Z 18004KT 07/01 A3013 RMK A01 T00730013  RH  065%=      5-min Rain = 0
KLO1 180236Z 19004KT 07/01 A3013 RMK A01 T00730012  RH  066%=      5-min Rain = 0
KLO1 180237Z 19004KT 07/01 A3013 RMK A01 T00720013  RH  066%=      5-min Rain = 0
KLO1 180238Z 20004KT 07/01 A3013 RMK A01 T00720013  RH  066%=      5-min Rain = 0
KLO1 180239Z 20005KT 07/01 A3013 RMK A01 T00710013  RH  066%=      5-min Rain = 0
KLO1 180240Z 20005KT 07/01 A3013 RMK A01 T00710013  RH  067%=      5-min Rain = 0
KLO1 180241Z 20005KT 07/01 A3013 RMK A01 T00700013  RH  067%=      5-min Rain = 0
KLO1 180242Z 20005KT 07/01 A3013 RMK A01 T00700014  RH  067%=      5-min Rain = 0
KLO1 180243Z 20005KT 07/01 A3013 RMK A01 T00700013  RH  067%=      5-min Rain = 0
KLO1 180244Z 20005KT 07/01 A3013 RMK A01 T00700014  RH  067%=      5-min Rain = 0
KLO1 180245Z 20005KT 07/01 A3013 RMK A01 T00700014  RH  067%=      5-min Rain = 0
KLO1 180246Z 19004KT 07/01 A3013 RMK A01 T00700014  RH  067%=      5-min Rain = 0
KLO1 180247Z 19004KT 07/01 A3013 RMK A01 T00690014  RH  068%=      5-min Rain = 0
KLO1 180248Z 19004KT 07/01 A3013 RMK A01 T00690013  RH  067%=      5-min Rain = 0
KLO1 180249Z 20003KT 07/01 A3013 RMK A01 T00690013  RH  067%=      5-min Rain = 0
KLO1 180250Z 20003KT 07/01 A3013 RMK A01 T00690013  RH  068%=      5-min Rain = 0
KLO1 180251Z 20003KT 07/01 A3013 RMK A01 T00690013  RH  068%=      5-min Rain = 0
KLO1 180252Z 20002KT 07/01 A3013 RMK A01 T00690013  RH  067%=      5-min Rain = 0
KLO1 180253Z 20002KT 07/01 A3013 RMK A01 T00690013  RH  067%=      5-min Rain = 0
KLO1 180254Z 20002KT 07/01 A3013 RMK A01 T00690013  RH  067%=      5-min Rain = 0
KLO1 180255Z 20002KT 07/01 A3013 RMK A01 T00690013  RH  067%=      5-min Rain = 0
KLO1 180256Z 21002KT 07/01 A3013 RMK A01 T00690013  RH  067%=      5-min Rain = 0
KLO1 180257Z 23002KT 07/01 A3013 RMK A01 T00700013  RH  067%=      5-min Rain = 0
KLO1 180258Z 24003KT 07/01 A3013 RMK A01 T00700014  RH  068%=      5-min Rain = 0
KLO1 180259Z 24003KT 07/01 A3013 RMK A01 T00690013  RH  068%=      5-min Rain = 0
KLO1 180300Z 24003KT 07/01 A3013 RMK A01 T00680013  RH  068%=      5-min Rain = 0
KLO1 180301Z 24004KT 07/01 A3013 RMK A01 T00670013  RH  068%=      5-min Rain = 0
KLO1 180302Z 23004KT 07/01 A3013 RMK A01 T00660012  RH  069%=      5-min Rain = 0
KLO1 180303Z 22003KT 07/01 A3013 RMK A01 T00650013  RH  069%=      5-min Rain = 0
KLO1 180304Z 23004KT 06/01 A3013 RMK A01 T00640013  RH  070%=      5-min Rain = 0
KLO1 180305Z 23004KT 06/01 A3013 RMK A01 T00640013  RH  070%=      5-min Rain = 0
KLO1 180306Z 23004KT 06/01 A3013 RMK A01 T00640013  RH  070%=      5-min Rain = 0
KLO1 180307Z 23004KT 06/01 A3013 RMK A01 T00640014  RH  070%=      5-min Rain = 0
KLO1 180308Z 23004KT 06/02 A3013 RMK A01 T00640015  RH  071%=      5-min Rain = 0
KLO1 180309Z 23005KT 07/02 A3013 RMK A01 T00650015  RH  071%=      5-min Rain = 0
KLO1 180310Z 22005KT 07/02 A3013 RMK A01 T00660016  RH  070%=      5-min Rain = 0
KLO1 180311Z 22004KT 07/02 A3013 RMK A01 T00670016  RH  070%=      5-min Rain = 0
KLO1 180312Z 22004KT 07/02 A3013 RMK A01 T00670016  RH  070%=      5-min Rain = 0
KLO1 180313Z 22004KT 07/02 A3013 RMK A01 T00670015  RH  070%=      5-min Rain = 0
KLO1 180314Z 22004KT 07/02 A3013 RMK A01 T00660015  RH  070%=      5-min Rain = 0
KLO1 180315Z 22003KT 07/02 A3013 RMK A01 T00650015  RH  070%=      5-min Rain = 0
KLO1 180316Z 22003KT 06/02 A3013 RMK A01 T00640015  RH  071%=      5-min Rain = 0
KLO1 180317Z 22003KT 06/01 A3013 RMK A01 T00640014  RH  071%=      5-min Rain = 0
KLO1 180318Z 21002KT 06/01 A3013 RMK A01 T00640014  RH  071%=      5-min Rain = 0
KLO1 180319Z 20001KT 06/01 A3013 RMK A01 T00630014  RH  071%=      5-min Rain = 0
KLO1 180320Z 19001KT 06/01 A3013 RMK A01 T00630014  RH  071%=      5-min Rain = 0
KLO1 180321Z 20002KT 06/01 A3013 RMK A01 T00630014  RH  071%=      5-min Rain = 0
KLO1 180322Z 21002KT 06/02 A3013 RMK A01 T00640015  RH  071%=      5-min Rain = 0
KLO1 180323Z 21002KT 06/02 A3013 RMK A01 T00630015  RH  071%=      5-min Rain = 0
KLO1 180324Z 21002KT 06/02 A3013 RMK A01 T00640015  RH  071%=      5-min Rain = 0
KLO1 180325Z 21002KT 06/02 A3013 RMK A01 T00630015  RH  071%=      5-min Rain = 0
KLO1 180326Z 21002KT 06/02 A3013 RMK A01 T00640015  RH  071%=      5-min Rain = 0
KLO1 180327Z 21002KT 06/02 A3013 RMK A01 T00640016  RH  071%=      5-min Rain = 0
KLO1 180328Z 22002KT 06/02 A3013 RMK A01 T00640015  RH  071%=      5-min Rain = 0
KLO1 180329Z 22002KT 06/02 A3013 RMK A01 T00640015  RH  071%=      5-min Rain = 0
KLO1 180330Z 23002KT 06/02 A3013 RMK A01 T00640015  RH  071%=      5-min Rain = 0
KLO1 180331Z 23002KT 06/02 A3013 RMK A01 T00630015  RH  071%=      5-min Rain = 0
KLO1 180332Z 22002KT 06/02 A3013 RMK A01 T00630016  RH  072%=      5-min Rain = 0
KLO1 180333Z 22002KT 06/02 A3013 RMK A01 T00630015  RH  071%=      5-min Rain = 0
KLO1 180334Z 22002KT 06/01 A3013 RMK A01 T00630014  RH  071%=      5-min Rain = 0
KLO1 180335Z 22002KT 06/01 A3013 RMK A01 T00630014  RH  071%=      5-min Rain = 0
KLO1 180336Z 23002KT 06/01 A3013 RMK A01 T00640014  RH  071%=      5-min Rain = 0
KLO1 180337Z 23002KT 06/01 A3013 RMK A01 T00640014  RH  071%=      5-min Rain = 0
KLO1 180338Z 23003KT 06/01 A3013 RMK A01 T00640014  RH  070%=      5-min Rain = 0
KLO1 180339Z 22003KT 06/02 A3013 RMK A01 T00640015  RH  070%=      5-min Rain = 0
KLO1 180340Z 22002KT 07/02 A3013 RMK A01 T00650015  RH  070%=      5-min Rain = 0
KLO1 180341Z 22002KT 07/02 A3013 RMK A01 T00650015  RH  070%=      5-min Rain = 0
KLO1 180342Z 22002KT 07/02 A3013 RMK A01 T00650015  RH  070%=      5-min Rain = 0
KLO1 180343Z 22002KT 07/02 A3013 RMK A01 T00650015  RH  070%=      5-min Rain = 0
KLO1 180344Z 23002KT 06/02 A3013 RMK A01 T00640015  RH  071%=      5-min Rain = 0
KLO1 180345Z 23002KT 06/01 A3013 RMK A01 T00640014  RH  070%=      5-min Rain = 0
KLO1 180346Z 23002KT 06/01 A3013 RMK A01 T00630014  RH  071%=      5-min Rain = 0
KLO1 180347Z 23001KT 06/01 A3013 RMK A01 T00630014  RH  071%=      5-min Rain = 0
KLO1 180348Z 23001KT 06/01 A3013 RMK A01 T00620014  RH  071%=      5-min Rain = 0
KLO1 180349Z 23001KT 06/01 A3013 RMK A01 T00620014  RH  071%=      5-min Rain = 0
KLO1 180350Z 23001KT 06/01 A3013 RMK A01 T00620014  RH  071%=      5-min Rain = 0
KLO1 180351Z 22001KT 06/01 A3013 RMK A01 T00610014  RH  072%=      5-min Rain = 0
KLO1 180352Z 21001KT 06/01 A3013 RMK A01 T00610014  RH  072%=      5-min Rain = 0
KLO1 180353Z 20001KT 06/02 A3013 RMK A01 T00610016  RH  073%=      5-min Rain = 0
KLO1 180354Z 20002KT 06/02 A3013 RMK A01 T00600016  RH  073%=      5-min Rain = 0
KLO1 180355Z 20001KT 06/02 A3013 RMK A01 T00600016  RH  073%=      5-min Rain = 0
KLO1 180356Z 20001KT 06/02 A3013 RMK A01 T00600016  RH  074%=      5-min Rain = 0
KLO1 180357Z 20001KT 06/02 A3013 RMK A01 T00590016  RH  074%=      5-min Rain = 0
KLO1 180358Z 19001KT 06/02 A3013 RMK A01 T00580016  RH  074%=      5-min Rain = 0
KLO1 180359Z 19001KT 06/02 A3013 RMK A01 T00580015  RH  074%=      5-min Rain = 0
KLO1 180400Z 19001KT 06/01 A3013 RMK A01 T00580014  RH  073%=      5-min Rain = 0
KLO1 180401Z 18001KT 06/01 A3013 RMK A01 T00580014  RH  073%=      5-min Rain = 0
KLO1 180402Z 20001KT 06/01 A3013 RMK A01 T00580014  RH  073%=      5-min Rain = 0
KLO1 180403Z 20001KT 06/01 A3013 RMK A01 T00580013  RH  073%=      5-min Rain = 0
KLO1 180404Z 21002KT 06/01 A3013 RMK A01 T00580014  RH  073%=      5-min Rain = 0
KLO1 180405Z 22002KT 06/01 A3013 RMK A01 T00580014  RH  074%=      5-min Rain = 0
KLO1 180406Z 22002KT 06/01 A3013 RMK A01 T00570014  RH  074%=      5-min Rain = 0
KLO1 180407Z 23002KT 06/01 A3013 RMK A01 T00570014  RH  074%=      5-min Rain = 0
KLO1 180408Z 23001KT 06/01 A3013 RMK A01 T00570014  RH  074%=      5-min Rain = 0
KLO1 180409Z 24001KT 06/01 A3013 RMK A01 T00570013  RH  073%=      5-min Rain = 0
KLO1 180410Z 24001KT 06/01 A3012 RMK A01 T00570014  RH  074%=      5-min Rain = 0
KLO1 180411Z 25000KT 06/01 A3012 RMK A01 T00560014  RH  074%=      5-min Rain = 0
KLO1 180412Z 26000KT 06/01 A3012 RMK A01 T00560014  RH  074%=      5-min Rain = 0
KLO1 180413Z 26000KT 06/01 A3012 RMK A01 T00560014  RH  075%=      5-min Rain = 0
KLO1 180414Z 00000KT 06/01 A3012 RMK A01 T00560014  RH  075%=      5-min Rain = 0
KLO1 180415Z 00000KT 06/01 A3013 RMK A01 T00560014  RH  075%=      5-min Rain = 0
KLO1 180416Z 00000KT 06/01 A3013 RMK A01 T00560014  RH  074%=      5-min Rain = 0
KLO1 180417Z 00000KT 06/01 A3013 RMK A01 T00560014  RH  074%=      5-min Rain = 0
KLO1 180418Z 00000KT 06/01 A3013 RMK A01 T00560014  RH  074%=      5-min Rain = 0
KLO1 180419Z 00000KT 06/01 A3013 RMK A01 T00560014  RH  074%=      5-min Rain = 0
KLO1 180420Z 00000KT 06/01 A3013 RMK A01 T00560013  RH  074%=      5-min Rain = 0
KLO1 180421Z 00000KT 06/01 A3013 RMK A01 T00560013  RH  074%=      5-min Rain = 0
KLO1 180422Z 00000KT 06/01 A3013 RMK A01 T00550013  RH  074%=      5-min Rain = 0
KLO1 180423Z 00000KT 06/02 A3013 RMK A01 T00550015  RH  075%=      5-min Rain = 0
KLO1 180424Z 00000KT 06/02 A3013 RMK A01 T00560016  RH  076%=      5-min Rain = 0
KLO1 180425Z 00000KT 06/02 A3013 RMK A01 T00560017  RH  076%=      5-min Rain = 0
KLO1 180426Z 00000KT 06/02 A3013 RMK A01 T00560017  RH  076%=      5-min Rain = 0
KLO1 180427Z 00000KT 06/02 A3013 RMK A01 T00560018  RH  077%=      5-min Rain = 0
KLO1 180428Z 00000KT 06/02 A3013 RMK A01 T00550018  RH  077%=      5-min Rain = 0
KLO1 180429Z 00000KT 06/02 A3013 RMK A01 T00550017  RH  076%=      5-min Rain = 0
KLO1 180430Z 00000KT 06/02 A3013 RMK A01 T00550018  RH  077%=      5-min Rain = 0
KLO1 180431Z 00000KT 06/02 A3013 RMK A01 T00550017  RH  077%=      5-min Rain = 0
KLO1 180432Z 00000KT 05/02 A3013 RMK A01 T00540016  RH  077%=      5-min Rain = 0
KLO1 180433Z 00000KT 05/02 A3013 RMK A01 T00530016  RH  077%=      5-min Rain = 0
KLO1 180434Z 00000KT 05/02 A3013 RMK A01 T00530015  RH  077%=      5-min Rain = 0
KLO1 180435Z 00000KT 05/02 A3013 RMK A01 T00530016  RH  077%=      5-min Rain = 0
KLO1 180436Z 21000KT 05/02 A3013 RMK A01 T00520015  RH  077%=      5-min Rain = 0
KLO1 180437Z 21001KT 05/02 A3013 RMK A01 T00510015  RH  077%=      5-min Rain = 0
KLO1 180438Z 20001KT 05/01 A3013 RMK A01 T00510014  RH  077%=      5-min Rain = 0
KLO1 180439Z 20002KT 05/01 A3013 RMK A01 T00500013  RH  077%=      5-min Rain = 0
KLO1 180440Z 19002KT 05/01 A3013 RMK A01 T00490013  RH  077%=      5-min Rain = 0
KLO1 180441Z 19002KT 05/01 A3013 RMK A01 T00490013  RH  078%=      5-min Rain = 0
KLO1 180442Z 19003KT 05/01 A3013 RMK A01 T00490014  RH  078%=      5-min Rain = 0
KLO1 180443Z 20003KT 05/01 A3013 RMK A01 T00480014  RH  078%=      5-min Rain = 0
KLO1 180444Z 20003KT 05/01 A3012 RMK A01 T00480014  RH  078%=      5-min Rain = 0
KLO1 180445Z 20003KT 05/01 A3012 RMK A01 T00480014  RH  079%=      5-min Rain = 0
KLO1 180446Z 20003KT 05/01 A3012 RMK A01 T00480014  RH  079%=      5-min Rain = 0
KLO1 180447Z 19003KT 05/02 A3012 RMK A01 T00480015  RH  079%=      5-min Rain = 0
KLO1 180448Z 19003KT 05/02 A3012 RMK A01 T00480015  RH  079%=      5-min Rain = 0
KLO1 180449Z 19003KT 05/01 A3012 RMK A01 T00480014  RH  079%=      5-min Rain = 0
KLO1 180450Z 19003KT 05/02 A3012 RMK A01 T00480015  RH  079%=      5-min Rain = 0
KLO1 180451Z 19003KT 05/02 A3012 RMK A01 T00470015  RH  079%=      5-min Rain = 0
KLO1 180452Z 19003KT 05/02 A3012 RMK A01 T00470015  RH  079%=      5-min Rain = 0
KLO1 180453Z 19002KT 05/02 A3012 RMK A01 T00470015  RH  079%=      5-min Rain = 0
KLO1 180454Z 18002KT 05/01 A3012 RMK A01 T00470014  RH  079%=      5-min Rain = 0
KLO1 180455Z 18002KT 05/01 A3012 RMK A01 T00470014  RH  079%=      5-min Rain = 0
KLO1 180456Z 18002KT 05/01 A3012 RMK A01 T00460014  RH  080%=      5-min Rain = 0
KLO1 180457Z 18002KT 05/01 A3012 RMK A01 T00460014  RH  080%=      5-min Rain = 0
KLO1 180458Z 18002KT 05/01 A3012 RMK A01 T00460014  RH  080%=      5-min Rain = 0
KLO1 180459Z 18003KT 05/01 A3012 RMK A01 T00460014  RH  080%=      5-min Rain = 0
KLO1 180500Z 17003KT 05/01 A3012 RMK A01 T00460014  RH  080%=      5-min Rain = 0
KLO1 180501Z 17002KT 05/01 A3012 RMK A01 T00450014  RH  080%=      5-min Rain = 0
KLO1 180502Z 17002KT 05/01 A3012 RMK A01 T00450013  RH  080%=      5-min Rain = 0
KLO1 180503Z 17002KT 04/01 A3012 RMK A01 T00440012  RH  080%=      5-min Rain = 0
KLO1 180504Z 17002KT 04/01 A3011 RMK A01 T00440012  RH  080%=      5-min Rain = 0
KLO1 180505Z 17002KT 04/01 A3011 RMK A01 T00440011  RH  079%=      5-min Rain = 0
KLO1 180506Z 17002KT 04/01 A3011 RMK A01 T00440011  RH  079%=      5-min Rain = 0
KLO1 180507Z 17003KT 04/01 A3011 RMK A01 T00440011  RH  079%=      5-min Rain = 0
KLO1 180508Z 16003KT 04/01 A3011 RMK A01 T00430010  RH  079%=      5-min Rain = 0
KLO1 180509Z 16003KT 04/01 A3011 RMK A01 T00430010  RH  079%=      5-min Rain = 0
KLO1 180510Z 17003KT 04/01 A3011 RMK A01 T00420010  RH  080%=      5-min Rain = 0
KLO1 180511Z 17003KT 04/01 A3011 RMK A01 T00420010  RH  080%=      5-min Rain = 0
KLO1 180512Z 17003KT 04/01 A3011 RMK A01 T00420011  RH  080%=      5-min Rain = 0
KLO1 180513Z 16003KT 04/01 A3011 RMK A01 T00420011  RH  080%=      5-min Rain = 0
KLO1 180514Z 16002KT 04/01 A3011 RMK A01 T00420011  RH  080%=      5-min Rain = 0
KLO1 180515Z 16002KT 04/01 A3011 RMK A01 T00420011  RH  081%=      5-min Rain = 0
KLO1 180516Z 15002KT 04/01 A3011 RMK A01 T00420011  RH  081%=      5-min Rain = 0
KLO1 180517Z 15002KT 04/01 A3011 RMK A01 T00420012  RH  081%=      5-min Rain = 0
KLO1 180518Z 15001KT 04/01 A3011 RMK A01 T00430013  RH  081%=      5-min Rain = 0
KLO1 180519Z 16002KT 04/01 A3011 RMK A01 T00430013  RH  080%=      5-min Rain = 0
KLO1 180520Z 17002KT 04/01 A3011 RMK A01 T00440013  RH  080%=      5-min Rain = 0
KLO1 180521Z 17002KT 04/01 A3011 RMK A01 T00440012  RH  080%=      5-min Rain = 0
KLO1 180522Z 17002KT 04/01 A3011 RMK A01 T00440013  RH  080%=      5-min Rain = 0
KLO1 180523Z 17002KT 04/01 A3011 RMK A01 T00440012  RH  080%=      5-min Rain = 0
KLO1 180524Z 17001KT 05/01 A3011 RMK A01 T00450013  RH  080%=      5-min Rain = 0
KLO1 180525Z 17001KT 05/01 A3011 RMK A01 T00450012  RH  079%=      5-min Rain = 0
KLO1 180526Z 17001KT 05/01 A3011 RMK A01 T00450012  RH  079%=      5-min Rain = 0
KLO1 180527Z 17000KT 04/01 A3011 RMK A01 T00440012  RH  079%=      5-min Rain = 0
KLO1 180528Z 16000KT 04/01 A3011 RMK A01 T00440012  RH  079%=      5-min Rain = 0
KLO1 180529Z 14001KT 04/01 A3011 RMK A01 T00440012  RH  080%=      5-min Rain = 0
KLO1 180530Z 14001KT 04/01 A3011 RMK A01 T00440012  RH  080%=      5-min Rain = 0
KLO1 180531Z 14001KT 04/01 A3011 RMK A01 T00440012  RH  079%=      5-min Rain = 0
KLO1 180532Z 15001KT 04/01 A3011 RMK A01 T00440012  RH  079%=      5-min Rain = 0
KLO1 180533Z 16002KT 04/01 A3011 RMK A01 T00440012  RH  079%=      5-min Rain = 0
KLO1 180534Z 17003KT 04/01 A3011 RMK A01 T00440012  RH  080%=      5-min Rain = 0
KLO1 180535Z 17003KT 04/01 A3011 RMK A01 T00440012  RH  080%=      5-min Rain = 0
KLO1 180536Z 17003KT 04/01 A3011 RMK A01 T00430012  RH  080%=      5-min Rain = 0
KLO1 180537Z 18003KT 04/01 A3011 RMK A01 T00430012  RH  080%=      5-min Rain = 0
KLO1 180538Z 19002KT 04/01 A3011 RMK A01 T00420011  RH  080%=      5-min Rain = 0
KLO1 180539Z 20002KT 04/01 A3011 RMK A01 T00420011  RH  080%=      5-min Rain = 0
KLO1 180540Z 21001KT 04/01 A3011 RMK A01 T00410011  RH  081%=      5-min Rain = 0
KLO1 180541Z 21001KT 04/01 A3011 RMK A01 T00410011  RH  081%=      5-min Rain = 0
KLO1 180542Z 21001KT 04/01 A3011 RMK A01 T00410011  RH  081%=      5-min Rain = 0
KLO1 180543Z 21000KT 04/01 A3011 RMK A01 T00410010  RH  081%=      5-min Rain = 0
KLO1 180544Z 00000KT 04/01 A301 RMK A01 T00400010  RH  081%=      5-min Rain = 0
KLO1 180545Z 00000KT 04/01 A301 RMK A01 T00400010  RH  081%=      5-min Rain = 0
KLO1 180546Z 19001KT 04/01 A301 RMK A01 T00400011  RH  081%=      5-min Rain = 0
KLO1 180547Z 18003KT 04/01 A3011 RMK A01 T00400012  RH  082%=      5-min Rain = 0
KLO1 180548Z 17004KT 04/01 A3011 RMK A01 T00410012  RH  081%=      5-min Rain = 0
KLO1 180549Z 17004KT 04/01 A3011 RMK A01 T00410012  RH  081%=      5-min Rain = 0
KLO1 180550Z 17004KT 04/01 A3011 RMK A01 T00400011  RH  081%=      5-min Rain = 0
KLO1 180551Z 17004KT 04/01 A3011 RMK A01 T00400011  RH  081%=      5-min Rain = 0
KLO1 180552Z 17004KT 04/01 A3011 RMK A01 T00400011  RH  082%=      5-min Rain = 0
KLO1 180553Z 17003KT 04/01 A3011 RMK A01 T00390011  RH  082%=      5-min Rain = 0
KLO1 180554Z 16003KT 04/01 A3011 RMK A01 T00390011  RH  082%=      5-min Rain = 0
KLO1 180555Z 16003KT 04/01 A3011 RMK A01 T00400011  RH  082%=      5-min Rain = 0
KLO1 180556Z 16004KT 04/01 A3011 RMK A01 T00400012  RH  082%=      5-min Rain = 0
KLO1 180557Z 15004KT 04/01 A3011 RMK A01 T00400012  RH  082%=      5-min Rain = 0
KLO1 180558Z 16004KT 04/01 A3011 RMK A01 T00410012  RH  082%=      5-min Rain = 0
KLO1 180559Z 17004KT 04/01 A3011 RMK A01 T00410012  RH  082%=      5-min Rain = 0

Page generated in 0.1336 seconds.